GEFSCGP_con_prob3kmehi_120.txt.gz
EHI
0 0 0 0 0 0 0 0 0 0 0 0 0 0 1 4 12 20 30 38 40 36 33 35 35 32 30 29 25 20 15 11 10 9 8 6 4 2 0 0 0 0 0 0
0 0 0 0 0 0 0 0 0 0 0 0 0 0 1 3 8 14 23 31 34 34 34 35 34 29 26 26 24 19 15 12 10 10 9 7 5 3 1 0 0 0 0 0
0 0 0 0 0 0 0 0 0 0 0 0 0 0 1 2 4 8 14 22 28 32 34 33 31 26 22 21 21 19 14 12 11 10 8 6 4 3 3 2 1 1 1 0
0 0 0 0 0 0 0 0 0 0 0 0 0 0 1 1 2 5 8 15 24 29 31 31 28 24 19 17 18 17 14 13 12 11 8 6 4 4 4 4 4 3 2 1
0 0 0 0 0 0 0 0 0 0 0 0 0 0 0 0 0 2 5 11 19 24 26 27 25 22 18 15 15 14 13 13 13 11 8 6 4 3 3 4 5 5 4 3
0 0 0 0 0 0 0 0 0 0 0 0 0 0 0 0 0 0 2 7 14 19 20 19 19 18 15 13 13 12 12 12 12 10 7 5 3 1 1 2 3 5 5 4
0 0 0 0 0 0 0 0 0 0 0 0 0 0 0 0 0 0 1 4 9 13 14 13 14 14 13 13 12 11 11 12 12 9 7 5 2 0 0 0 2 3 3 3
0 0 0 0 0 0 0 0 0 0 0 0 0 0 0 0 0 1 1 4 6 8 10 11 10 9 10 11 10 9 10 11 12 10 7 5 2 1 0 0 1 1 1 2
0 0 0 0 0 0 0 0 0 0 0 0 0 0 0 0 0 1 2 3 3 4 7 9 8 6 7 8 7 8 9 9 9 8 6 4 3 2 1 0 0 0 0 1
0 0 0 0 0 0 0 0 0 0 0 0 0 0 0 0 0 1 1 1 1 2 3 5 6 6 6 6 7 7 8 7 7 6 4 3 3 3 1 0 0 0 0 0
0 0 0 0 0 0 0 0 0 0 0 0 0 0 0 0 0 0 0 0 0 0 1 2 4 6 6 7 7 6 6 6 6 5 4 3 3 3 2 1 0 0 0 0
0 0 0 0 0 0 0 0 0 0 0 0 0 0 0 0 0 0 0 0 0 0 0 1 3 4 5 6 6 6 5 5 5 4 3 3 3 3 3 2 0 0 0 0
0 0 0 0 0 0 0 0 0 0 0 0 0 0 0 0 0 0 0 0 0 0 0 0 1 2 4 5 6 7 6 6 5 4 3 3 3 3 3 1 0 0 0 0
0 0 0 0 0 0 0 0 0 0 0 0 0 0 0 0 1 1 1 1 1 1 0 0 0 1 3 5 6 7 8 6 6 5 4 3 2 2 2 1 0 0 0 0
0 0 0 0 0 0 0 0 1 1 0 0 0 0 0 1 2 3 4 3 2 2 1 0 0 0 2 4 7 8 8 6 5 5 4 2 1 1 1 0 0 0 0 0
0 0 0 0 0 0 0 0 1 2 1 0 0 0 0 1 3 5 6 4 3 2 1 0 0 0 0 2 6 8 8 6 4 4 4 2 1 1 1 0 0 0 0 0
0 0 0 0 0 0 0 0 1 2 2 1 1 1 1 1 4 5 5 5 4 3 1 0 0 0 0 1 3 5 6 6 4 3 3 3 3 2 2 1 1 0 0 0
0 0 0 0 0 0 0 0 1 2 2 1 1 2 2 2 3 3 3 4 5 3 2 0 0 0 0 0 1 2 3 4 5 4 4 4 4 3 2 2 2 1 0 0
0 0 0 0 0 0 0 0 0 1 1 1 1 2 2 2 1 1 1 2 3 2 1 0 0 0 0 0 0 0 0 2 4 4 5 5 5 4 2 2 2 1 0 0
0 0 0 0 0 0 0 0 0 0 0 0 1 2 2 1 0 0 0 1 1 1 0 0 0 0 0 0 0 0 0 0 1 2 3 4 3 2 1 1 1 0 0 0
0 0 0 0 0 0 0 0 0 0 0 0 1 2 2 1 0 0 0 0 0 0 0 0 1 1 1 0 0 0 0 0 0 1 2 2 2 1 0 0 0 0 0 0
0 0 0 0 0 0 0 0 0 0 0 0 1 2 1 0 0 0 0 0 0 0 0 0 2 2 1 0 0 0 0 0 0 0 1 1 1 0 0 0 0 0 0 0
0 0 0 0 0 0 0 0 0 0 0 1 1 1 0 0 0 0 0 0 0 0 0 0 1 2 2 1 1 1 0 0 0 0 0 0 0 0 0 0 0 0 0 0
0 0 0 0 0 0 0 0 0 0 0 1 1 1 0 0 0 0 0 0 0 0 0 0 1 2 3 3 2 2 1 0 0 0 0 0 0 0 0 0 0 0 0 0
0 0 0 0 0 0 0 0 0 0 0 0 0 0 0 0 0 0 0 0 0 0 0 0 1 3 3 3 3 2 1 0 0 0 0 0 0 0 0 0 0 0 0 0
0 0 0 0 0 0 0 0 0 0 0 0 0 0 0 0 0 0 0 0 0 0 0 1 2 3 3 3 2 1 0 0 0 0 0 0 0 0 0 0 0 0 0 0

GEFSCGP_con_prob3kmehi_126.txt.gz
EHI
0 0 0 0 0 0 0 0 0 0 0 0 1 2 2 2 3 6 12 19 28 36 46 53 52 50 51 55 55 52 44 36 33 32 28 22 15 8 4 2 3 3 1 0
0 0 0 0 0 0 0 0 0 0 0 0 1 2 3 3 2 5 11 18 25 35 46 53 54 49 48 50 51 47 40 36 34 32 29 24 16 8 4 3 4 4 1 0
0 0 0 0 0 0 0 0 0 0 0 0 0 1 3 3 2 4 11 18 24 33 44 51 52 48 44 43 42 40 38 37 35 31 27 23 17 9 5 5 6 5 2 0
0 0 0 0 0 0 0 0 0 0 0 0 0 0 2 3 3 4 11 18 23 29 38 47 49 47 44 38 35 35 38 40 37 30 24 19 13 7 5 6 7 7 3 1
0 0 0 0 0 0 0 0 0 0 0 0 0 0 1 2 3 4 8 15 20 23 30 38 43 43 41 38 33 32 36 38 36 29 22 16 10 5 3 4 7 7 4 3
0 0 0 0 0 0 0 0 0 0 0 0 0 0 0 1 1 2 5 9 14 18 21 28 34 34 33 33 32 31 33 34 32 25 18 14 10 6 3 3 6 6 5 5
0 0 0 0 0 0 0 0 0 0 0 0 0 0 0 0 1 2 3 5 9 13 16 22 27 27 25 26 28 29 29 29 27 20 13 11 10 7 3 3 5 5 4 3
0 0 0 0 0 0 0 0 0 0 0 0 0 0 0 0 1 3 4 4 7 9 12 18 24 24 21 19 21 24 25 24 22 17 12 9 8 7 4 3 5 5 3 1
0 0 0 0 0 0 0 0 0 0 0 0 0 0 0 0 1 4 4 4 6 7 8 15 22 23 19 15 16 20 21 21 21 19 15 12 10 8 5 5 6 5 3 1
0 0 0 0 0 0 0 0 0 0 0 0 0 0 0 0 1 3 4 4 6 6 7 12 18 19 15 13 13 15 17 19 20 20 17 13 10 7 5 5 5 5 4 2
0 0 0 0 0 0 0 0 0 0 0 0 0 0 0 0 1 3 4 5 6 6 9 12 13 13 11 9 9 10 13 15 15 15 14 12 8 5 3 2 3 4 4 4
0 0 0 0 0 0 0 0 0 0 0 0 0 0 0 1 2 4 5 6 5 8 13 15 12 9 6 5 5 7 10 10 8 9 10 10 7 5 2 1 2 3 4 4
0 0 0 0 0 0 0 0 0 0 0 0 0 0 0 2 5 7 8 8 9 13 18 17 12 8 4 2 3 5 7 7 5 7 9 10 9 6 3 2 2 3 3 4
0 0 0 0 0 0 0 0 0 0 0 0 0 0 2 4 8 13 15 15 14 19 21 16 10 7 5 3 2 3 6 7 7 7 10 12 11 8 6 5 5 5 4 5
0 0 0 0 0 0 0 0 0 0 0 0 0 2 4 6 11 17 22 22 21 22 22 16 10 8 8 6 4 3 5 7 9 9 10 10 11 10 9 9 8 8 7 8
0 0 0 0 0 0 0 0 0 0 0 0 1 3 5 8 13 20 26 28 25 23 21 17 12 11 11 10 7 5 5 7 9 10 10 9 9 11 11 10 10 9 10 10
0 0 0 0 0 0 0 0 0 0 0 2 4 5 7 12 17 21 25 28 25 19 17 17 15 13 14 12 10 10 9 8 8 10 10 8 8 11 12 11 9 9 10 10
0 0 0 0 0 0 0 0 0 0 2 5 7 9 11 15 20 21 22 24 22 17 15 17 17 16 15 14 14 15 15 12 10 9 8 8 10 13 14 13 11 10 10 10
0 0 0 0 0 0 0 0 0 1 2 5 8 9 10 13 16 18 19 21 20 19 19 21 21 19 19 19 18 18 18 16 12 8 6 7 11 15 17 16 14 12 11 11
0 0 0 0 0 0 0 0 0 1 2 4 5 6 7 10 13 15 18 20 21 21 21 22 22 19 19 20 19 18 17 14 11 7 5 6 9 14 16 16 14 12 11 11
0 0 0 0 0 0 0 0 1 2 3 5 5 6 8 12 16 17 18 20 21 21 20 19 17 16 15 16 18 17 14 12 8 5 4 4 5 7 10 12 13 12 11 9
0 0 0 0 0 0 0 2 3 5 7 7 6 6 9 13 16 17 17 17 18 19 17 13 11 12 12 13 15 15 14 12 8 5 3 2 2 2 4 8 11 10 8 6
0 0 0 0 0 0 1 3 6 8 10 9 5 4 6 9 11 12 13 11 11 12 12 8 6 7 8 10 12 13 14 12 10 7 4 2 1 3 6 7 8 7 5 3
0 0 0 0 0 0 0 2 5 8 9 7 4 1 2 5 7 8 7 6 6 7 8 6 4 3 4 6 8 11 12 11 8 7 6 3 2 4 6 6 4 4 3 1
1 1 0 0 0 0 0 1 3 5 6 5 2 1 2 4 6 5 3 3 4 4 5 5 3 2 1 2 4 7 10 8 5 5 5 3 2 2 3 2 1 1 1 0
0 1 0 0 0 0 0 1 2 4 5 4 3 2 2 5 6 4 2 3 3 2 3 3 2 2 1 0 2 6 9 7 3 2 2 2 1 1 1 0 0 0 0 0

GEFSCGP_con_prob3kmehi_132.txt.gz
EHI
0 0 0 0 0 0 0 0 0 0 0 0 2 6 10 9 10 16 29 50 67 77 80 79 78 78 80 81 81 81 80 77 73 65 56 49 43 37 33 34 38 33 24 23
0 0 0 0 0 0 0 0 0 0 0 0 2 6 10 10 10 13 24 44 64 75 80 80 78 78 80 82 81 80 79 76 71 63 55 48 44 38 32 33 38 34 26 24
0 0 0 0 0 0 0 0 0 0 0 0 1 6 10 11 10 10 18 35 54 70 79 80 78 77 80 82 80 76 75 72 66 59 53 49 46 39 31 33 36 32 26 26
0 0 0 0 0 0 0 0 0 0 0 0 0 4 9 11 9 9 15 30 46 63 75 78 75 75 77 78 75 72 71 66 60 55 53 51 47 38 30 32 32 28 25 25
0 0 0 0 0 0 0 0 0 0 0 0 0 2 6 10 10 10 16 28 43 57 68 73 73 74 75 72 69 67 66 62 56 54 53 51 45 36 30 29 28 26 24 21
0 0 0 0 0 0 0 0 0 0 0 0 0 1 4 8 10 13 20 30 41 50 59 66 70 73 72 69 65 63 63 60 56 53 52 50 44 36 31 28 26 26 23 20
0 0 0 0 0 0 0 0 0 0 0 0 0 1 3 6 9 15 23 30 36 41 48 56 63 67 67 65 63 63 63 60 55 51 48 46 42 38 34 31 26 22 20 19
0 0 0 0 0 0 0 0 0 0 0 0 0 2 4 6 9 14 22 26 28 32 39 48 54 58 61 61 61 60 59 56 52 48 44 40 38 35 34 31 24 16 15 16
0 0 0 0 0 0 0 0 0 0 0 0 0 3 6 7 8 14 20 21 21 26 34 42 48 52 55 54 53 51 49 48 45 41 38 35 32 30 29 25 19 13 12 12
0 0 0 0 0 0 0 0 0 0 0 0 0 3 6 6 8 15 18 19 22 25 32 39 44 46 46 43 41 40 38 37 35 32 31 30 28 26 24 20 16 14 13 12
0 0 0 0 0 0 0 0 0 0 0 0 0 1 3 4 7 13 18 22 26 29 34 38 39 38 36 32 30 30 29 28 27 26 27 27 25 23 22 19 17 17 16 14
0 0 0 0 0 0 0 0 0 0 0 0 0 0 1 2 6 13 21 27 29 33 37 37 35 33 29 25 24 24 25 25 24 24 25 25 24 21 20 19 18 18 18 16
0 0 0 0 0 0 0 0 0 0 0 0 1 2 3 4 9 19 29 32 30 33 39 40 39 35 28 24 23 24 25 25 25 25 25 23 21 20 20 21 21 20 18 16
0 0 0 0 0 0 0 0 0 0 0 0 2 5 6 8 15 28 38 38 33 35 40 44 45 42 35 29 25 24 25 24 24 25 25 21 19 18 19 21 22 20 17 15
0 0 0 0 0 0 0 0 0 0 0 0 3 7 10 15 23 35 44 44 40 40 43 47 49 46 39 31 26 23 23 23 24 24 24 22 19 18 19 21 21 19 16 14
0 0 0 0 0 0 0 0 0 0 0 1 4 9 16 22 28 37 45 46 46 45 47 50 49 45 38 30 25 22 22 25 25 24 23 22 20 18 19 21 21 19 16 14
0 0 0 0 0 0 0 1 1 1 1 3 7 13 20 27 32 39 44 48 48 48 50 51 48 42 34 28 26 24 25 27 27 24 22 22 22 20 19 19 20 19 17 14
0 0 0 0 0 0 0 1 2 2 3 7 12 17 22 31 38 43 47 51 50 50 52 50 44 38 33 29 29 28 28 28 27 23 20 20 21 20 19 19 19 19 18 16
1 2 1 0 0 0 1 2 3 4 5 11 17 20 24 32 39 46 52 54 52 52 54 49 41 38 37 34 33 32 31 29 27 23 21 20 20 19 19 19 20 21 19 17
1 2 1 0 0 0 2 4 4 4 8 14 21 23 26 31 39 48 54 53 51 52 51 44 40 41 42 39 35 32 30 30 27 24 23 21 20 20 20 20 20 19 16 15
1 1 0 0 0 1 2 4 5 10 17 22 25 28 30 35 42 48 49 47 45 44 41 37 37 41 41 38 33 28 27 27 25 22 22 22 21 19 18 18 16 13 11 10
0 0 0 0 2 6 8 8 9 18 27 32 33 35 36 38 40 41 41 37 34 32 32 32 35 37 37 34 30 25 22 22 20 20 20 21 19 15 13 13 11 8 7 6
2 2 4 6 9 14 16 13 13 19 27 32 33 32 31 31 32 32 31 27 24 24 26 29 31 31 31 29 25 22 20 20 19 18 18 18 14 11 10 10 9 7 6 6
5 5 9 14 16 17 18 16 14 16 20 23 22 19 19 22 24 24 23 20 18 19 22 24 25 24 23 23 21 19 19 19 16 13 13 11 8 8 9 8 6 5 5 5
5 6 10 15 17 17 16 15 13 13 15 15 13 12 13 16 18 18 17 15 14 15 16 18 19 19 18 18 17 16 16 14 11 9 8 6 4 5 5 4 2 2 2 3
4 5 8 11 15 17 16 13 11 11 11 11 11 12 12 14 15 14 14 14 12 12 12 14 17 17 16 15 14 12 11 10 8 7 6 4 3 3 3 1 0 0 0 1

GEFSCGP_con_prob3kmehi_138.txt.gz
EHI
0 0 0 0 0 0 0 0 0 0 0 1 4 10 17 23 33 43 52 60 68 68 63 60 62 66 67 66 65 63 61 57 50 41 32 27 25 22 16 9 4 2 1 1
0 0 0 0 0 0 0 0 0 0 0 1 3 7 13 20 29 40 50 59 67 68 64 62 64 67 67 67 66 62 58 53 48 40 31 25 21 18 14 9 4 2 2 3
0 0 0 0 0 0 0 0 0 0 0 1 2 4 9 15 24 36 48 58 65 67 64 64 67 68 66 65 64 58 51 47 43 36 29 23 18 15 12 8 5 3 2 3
0 0 0 0 0 0 0 0 0 0 0 0 1 1 5 12 22 33 46 56 62 63 63 65 68 67 64 63 60 53 46 42 38 33 29 25 18 13 10 7 5 3 2 3
0 0 0 0 0 0 0 0 0 0 0 0 0 0 2 9 20 32 44 53 58 62 63 64 64 62 61 61 58 51 45 40 36 33 30 24 16 10 7 6 5 4 3 3
0 0 0 0 0 0 0 0 0 0 0 0 0 0 1 6 16 30 42 48 53 60 63 62 60 58 59 58 55 51 46 41 37 33 29 22 13 7 6 5 5 4 3 3
0 0 0 0 0 0 0 0 0 0 0 0 0 0 0 4 12 25 37 42 46 52 56 59 59 57 55 54 52 50 46 42 37 33 29 20 11 6 5 4 5 5 2 1
0 0 0 0 0 0 0 0 0 0 0 0 0 0 2 7 14 23 32 37 39 42 45 50 54 52 49 49 48 47 45 39 34 31 24 16 8 5 3 2 4 3 1 0
0 0 0 0 0 0 0 0 0 0 0 0 0 1 4 11 19 25 31 34 34 34 37 40 42 43 42 41 41 41 38 32 27 24 18 11 7 5 2 1 2 1 0 0
0 0 0 0 0 0 0 0 0 0 0 0 0 0 4 12 19 23 27 29 29 32 36 36 34 36 35 33 32 30 28 23 19 16 13 10 6 3 1 1 1 1 0 0
0 0 0 0 0 0 0 0 0 0 0 0 0 0 3 9 15 20 24 27 29 33 35 35 34 32 29 26 22 20 19 15 13 12 11 9 5 2 0 0 0 0 0 0
0 0 0 0 0 0 0 0 0 0 0 0 0 1 3 8 14 23 30 34 34 33 32 34 34 29 23 17 13 11 11 10 10 9 9 8 5 3 1 1 1 1 1 0
0 0 0 0 0 0 0 0 0 0 0 0 0 1 4 10 18 29 39 42 39 34 31 30 29 24 16 9 6 6 7 9 9 9 8 8 8 6 4 3 2 2 2 1
0 0 0 0 0 0 0 0 0 0 0 0 0 2 5 13 24 35 43 45 43 38 31 25 21 18 12 7 5 6 8 10 11 9 8 9 9 8 6 4 3 3 2 1
0 0 0 0 0 0 0 0 0 0 0 0 2 4 7 16 30 41 46 47 45 39 29 21 17 15 12 7 6 8 10 10 10 9 9 9 9 9 8 5 3 2 1 1
0 0 0 0 0 0 0 0 0 0 0 2 5 9 15 25 36 46 49 46 41 34 27 20 15 11 9 7 6 8 9 8 7 8 8 8 7 8 7 5 3 2 1 1
0 0 0 0 0 0 0 0 0 1 1 4 10 18 26 32 39 45 46 41 32 27 24 18 11 7 5 4 4 6 6 5 4 5 6 5 5 5 5 4 4 3 3 2
0 0 0 0 0 0 0 0 1 2 4 6 14 24 32 35 37 37 35 31 26 23 22 15 8 4 3 1 1 3 3 2 1 2 3 3 3 3 3 4 4 3 3 3
0 0 0 0 0 0 0 0 1 3 6 9 16 26 32 35 36 32 26 25 24 22 19 13 8 5 3 1 0 1 1 1 0 0 1 1 1 1 2 3 3 2 2 1
0 0 0 0 0 0 0 0 1 3 6 10 17 25 30 32 34 31 27 24 23 20 15 12 9 6 4 2 1 2 2 1 1 1 0 0 0 0 1 1 1 1 1 0
0 0 0 0 0 0 0 0 0 2 6 13 19 24 27 28 28 29 28 24 20 15 12 10 9 7 5 3 2 2 2 3 3 2 1 0 0 0 0 0 0 0 0 0
0 0 0 0 0 0 0 0 1 4 10 18 23 26 29 30 28 26 24 20 16 13 10 9 8 6 5 4 3 2 2 3 4 3 1 0 0 0 0 0 0 0 0 0
0 0 0 1 1 2 3 4 6 10 16 21 24 26 29 30 26 21 18 15 14 12 10 8 6 5 4 3 3 2 2 3 3 2 1 0 0 0 0 0 0 0 0 0
0 0 0 1 2 5 8 11 13 15 17 20 21 21 22 23 19 16 13 11 12 11 10 8 5 4 3 2 2 1 2 2 1 1 0 0 0 0 0 0 0 0 0 0
0 0 0 1 2 5 9 12 14 14 15 16 16 14 14 14 13 11 9 9 8 8 6 5 4 3 3 2 1 1 2 2 1 0 0 0 0 0 0 0 0 0 0 0
0 0 0 0 1 3 6 9 12 12 12 14 12 11 11 11 10 9 8 7 5 4 3 3 3 3 3 2 2 2 2 2 1 0 0 0 0 0 0 0 0 0 0 0

GEFSCGP_con_prob3kmehi_144.txt.gz
EHI
0 0 0 0 0 0 0 0 0 0 0 0 0 1 8 20 27 30 34 36 37 34 31 35 43 45 46 45 39 32 25 16 11 10 6 2 0 0 0 0 0 0 0 0
0 0 0 0 0 0 0 0 0 0 0 0 0 1 7 15 21 27 32 35 37 37 35 38 45 47 46 45 40 34 28 21 15 11 7 3 1 0 0 0 0 0 0 0
0 0 0 0 0 0 0 0 0 0 0 0 0 1 4 7 12 19 28 33 37 41 41 43 47 46 43 40 38 35 30 25 19 14 9 5 3 2 2 1 0 0 0 0
0 0 0 0 0 0 0 0 0 0 0 0 0 0 1 3 5 13 24 33 38 41 43 44 44 40 36 33 33 33 30 26 21 17 13 9 7 6 5 3 1 0 0 0
0 0 0 0 0 0 0 0 0 0 0 0 0 0 0 1 2 9 23 33 36 38 41 41 39 34 30 28 29 29 27 25 22 20 18 15 10 7 5 3 1 0 0 0
0 0 0 0 0 0 0 0 0 0 0 0 0 0 0 0 0 6 20 30 32 34 38 39 38 35 32 29 27 27 25 23 21 21 20 17 12 7 3 1 0 0 0 0
0 0 0 0 0 0 0 0 0 0 0 0 0 0 0 0 0 5 17 27 29 30 32 34 36 39 39 35 31 28 25 22 20 21 20 16 11 7 3 1 0 0 0 0
0 0 0 0 0 0 0 0 0 0 0 0 0 0 0 1 2 7 17 24 25 24 25 29 33 38 39 36 31 28 25 22 21 21 19 14 9 5 3 1 0 0 1 1
0 0 0 0 0 0 0 0 0 0 0 0 0 0 0 2 4 9 16 21 20 19 23 28 30 32 30 26 23 22 21 20 19 19 16 11 6 4 3 2 1 0 0 0
0 0 0 0 0 0 0 0 0 0 0 0 0 0 0 2 6 9 12 15 16 17 22 26 26 23 19 15 14 14 14 14 14 13 11 8 5 3 3 2 1 0 0 0
0 0 0 0 0 0 0 0 0 0 0 0 0 0 0 2 7 10 10 11 15 18 21 21 20 17 14 12 11 9 8 8 8 7 6 4 3 2 2 2 1 0 0 0
0 0 0 0 0 0 0 0 0 0 0 0 0 0 0 3 8 12 13 14 18 21 19 17 16 15 14 12 9 6 5 4 3 2 2 1 1 1 1 1 0 0 0 0
0 0 0 0 0 0 0 0 0 0 0 0 0 0 0 3 8 14 18 21 23 23 18 16 16 15 14 11 6 4 3 2 1 0 0 0 0 0 0 0 0 0 0 0
0 0 0 0 0 0 0 0 0 0 0 0 0 0 0 3 8 14 20 24 25 23 19 17 16 14 12 8 4 3 2 1 0 0 1 1 0 0 0 0 0 0 0 0
0 0 0 0 0 0 0 0 0 0 0 0 0 0 0 3 8 13 18 24 28 25 20 15 12 11 9 6 4 2 1 0 0 0 1 1 0 0 0 0 0 0 0 0
0 0 0 0 0 0 0 0 0 0 0 0 0 0 1 4 9 14 18 25 29 27 20 13 9 9 8 6 4 2 1 0 0 0 0 0 0 0 0 0 0 0 0 0
0 0 0 0 0 0 0 0 0 0 0 0 0 1 3 7 12 15 18 24 28 25 17 10 7 7 6 4 2 1 1 0 0 0 0 0 0 0 0 0 0 0 0 0
0 0 0 0 0 0 0 0 0 0 0 0 0 2 5 10 12 14 15 18 22 20 12 6 4 3 2 1 0 0 0 0 0 0 0 0 0 0 0 0 0 0 0 0
0 0 0 0 0 0 0 0 0 0 0 0 1 4 9 13 13 11 10 12 15 13 8 4 1 0 0 0 0 0 0 0 0 0 0 0 0 0 0 0 0 0 0 0
0 0 0 0 0 0 0 0 0 0 0 1 2 7 13 14 11 8 7 9 9 7 4 2 0 0 0 0 0 0 0 0 0 0 0 0 0 0 0 0 0 0 0 0
0 0 0 0 0 0 0 0 0 0 0 1 3 8 11 10 7 7 9 9 8 5 3 0 0 0 0 0 0 0 0 0 0 0 0 0 0 0 0 0 0 0 0 0
0 0 0 0 0 0 0 0 0 0 0 1 3 7 8 7 7 9 11 10 9 7 3 0 0 0 0 0 0 0 0 0 0 0 0 0 0 0 0 0 0 0 0 0
0 0 0 0 0 0 0 0 0 0 0 1 3 5 8 9 10 12 12 11 8 6 3 1 0 0 0 0 0 0 0 0 0 0 0 0 0 0 0 0 0 0 0 0
0 0 0 0 0 0 0 0 0 1 2 3 4 7 9 11 12 11 10 9 7 5 3 2 1 0 0 0 0 0 0 0 0 0 0 0 0 0 0 0 0 0 0 0
0 0 0 0 0 0 0 0 1 4 6 7 7 8 10 11 11 9 7 6 5 4 3 2 1 0 0 0 0 0 0 0 0 0 0 0 0 0 0 0 0 0 0 0
0 0 0 0 0 0 0 0 1 5 8 9 9 9 10 11 10 7 5 4 4 3 2 1 0 0 0 0 0 0 0 0 0 0 0 0 0 0 0 0 0 0 0 0

GEFSCGP_con_prob3kmehi_150.txt.gz
EHI
0 0 0 0 0 0 0 0 0 0 0 0 0 2 5 9 12 15 19 27 33 37 43 50 54 54 53 51 47 43 44 42 38 34 29 23 19 14 12 11 8 4 1 0
0 0 0 0 0 0 0 0 0 0 0 0 0 2 5 8 10 13 18 24 30 37 46 53 54 53 53 52 48 45 46 45 42 37 30 23 19 14 12 10 7 4 1 0
0 0 0 0 0 0 0 0 0 0 0 0 0 1 4 5 6 11 18 24 29 36 47 55 55 52 51 51 48 46 47 47 45 40 31 24 20 17 13 10 7 5 2 0
0 0 0 0 0 0 0 0 0 0 0 0 0 1 3 4 4 9 19 27 31 35 44 54 57 53 48 45 43 44 46 46 45 40 33 27 23 17 13 11 9 6 4 2
0 0 0 0 0 0 0 0 0 0 0 0 0 0 1 2 3 8 17 27 33 37 42 51 56 54 45 38 37 40 42 44 43 39 35 30 24 17 13 13 12 10 7 6
0 0 0 0 0 0 0 0 0 0 0 0 0 0 0 0 1 6 15 26 34 37 41 47 52 52 44 37 36 38 39 41 41 38 34 31 26 21 18 17 15 13 12 11
0 0 0 0 0 0 0 0 0 0 0 0 0 0 0 0 0 4 15 28 35 36 38 43 46 47 45 41 40 41 42 42 39 34 31 28 25 22 19 17 14 14 13 11
0 0 0 0 0 0 0 0 0 0 0 0 0 0 0 0 0 3 14 29 38 37 34 37 40 43 46 46 45 46 45 42 38 33 29 24 20 16 13 11 10 11 10 7
0 0 0 0 0 0 0 0 0 0 0 0 0 0 0 0 2 5 15 28 39 39 34 34 38 41 46 48 46 45 44 40 36 34 28 23 18 13 9 7 6 6 6 4
0 0 0 0 0 0 0 0 0 0 0 0 0 0 0 1 4 8 16 28 36 37 35 37 40 41 42 43 42 41 40 37 34 31 25 21 18 14 9 5 4 3 4 3
0 0 0 0 0 0 0 0 0 0 0 0 0 0 0 1 4 9 17 28 35 36 36 40 42 39 35 34 34 35 35 32 29 24 19 17 15 11 7 4 3 2 2 2
0 0 0 0 0 0 0 0 0 0 0 0 0 0 0 0 3 10 19 30 38 42 43 44 44 38 31 27 28 30 29 26 22 18 16 15 13 9 5 3 3 1 1 1
0 0 0 0 0 0 0 0 0 0 0 0 0 0 0 0 3 10 20 33 45 51 51 49 46 40 31 26 25 25 24 20 17 16 15 14 11 8 5 4 4 4 3 2
0 0 0 0 0 0 0 0 0 0 0 0 0 0 0 1 5 11 22 36 49 53 53 51 49 43 35 28 25 24 23 18 14 13 13 12 9 6 5 4 5 5 3 1
0 0 0 0 0 0 0 0 0 0 0 0 0 0 0 2 8 17 27 40 49 51 51 51 50 45 39 33 27 24 22 17 14 13 13 11 7 4 4 4 4 4 2 1
0 0 0 0 0 0 0 0 0 0 0 0 0 0 1 5 13 22 31 41 48 49 49 50 49 48 43 36 29 24 21 18 17 15 13 9 6 4 3 3 3 3 3 2
0 0 0 0 0 0 0 0 0 0 0 0 0 1 4 7 14 22 29 39 47 48 48 50 50 47 44 36 28 22 18 16 16 13 10 7 5 5 3 1 2 4 5 4
0 0 0 0 0 0 0 0 0 0 0 1 1 3 6 8 12 19 27 37 44 48 52 56 54 47 40 33 25 18 13 11 10 8 6 3 3 3 2 1 2 4 5 4
0 0 0 0 0 0 0 0 0 0 1 4 6 6 7 8 9 17 29 39 46 51 57 60 55 46 38 31 24 17 11 7 6 5 3 2 1 2 2 1 1 3 3 2
0 0 0 0 0 0 0 0 0 0 3 8 11 11 11 11 13 22 35 45 52 58 61 59 51 42 35 31 26 20 13 8 6 5 5 3 3 2 1 0 0 2 2 1
0 0 0 0 0 0 1 1 2 2 5 11 15 16 17 20 25 33 42 50 59 63 61 55 47 38 34 32 28 23 15 9 6 7 7 6 4 2 1 0 1 2 2 2
1 0 0 0 0 0 1 3 5 8 12 16 21 23 24 27 31 36 42 49 58 60 55 49 43 39 35 32 28 22 14 8 6 8 8 6 4 3 2 1 2 3 3 3
1 1 1 0 0 0 1 4 8 15 20 23 25 26 26 26 28 31 35 40 46 47 46 43 40 37 34 31 26 19 11 7 6 7 6 5 5 5 4 3 3 3 2 2
2 2 2 1 0 2 3 6 11 18 24 25 24 24 23 24 26 27 30 33 34 36 36 35 33 30 27 24 20 14 9 7 7 6 5 6 7 6 5 4 3 2 1 1
3 4 4 3 3 5 8 11 14 18 20 20 20 21 22 26 28 27 27 29 31 31 30 27 24 21 17 14 12 9 7 7 8 6 5 6 7 5 5 4 3 2 1 1
4 5 6 6 5 8 12 14 15 16 17 17 18 19 23 29 30 27 26 29 30 29 26 22 19 16 11 8 7 7 6 7 8 7 6 5 5 4 4 4 2 1 1 0

GEFSCGP_con_prob3kmehi_156.txt.gz
EHI
0 0 0 0 0 0 0 0 0 0 0 1 2 6 9 11 13 23 37 49 56 61 68 75 77 75 75 77 76 72 70 68 61 52 44 43 46 45 39 37 36 28 20 20
0 0 0 0 0 0 0 0 0 0 0 0 1 4 8 10 12 21 34 46 55 62 69 76 77 75 75 76 75 73 71 67 60 53 45 42 43 41 35 34 35 29 22 22
0 0 0 0 0 0 0 0 0 0 0 0 1 2 5 9 12 18 29 43 55 63 70 77 79 77 75 75 73 71 70 66 61 55 48 42 40 37 32 32 34 31 27 24
0 0 0 0 0 0 0 0 0 0 0 0 0 1 4 9 13 18 27 40 53 63 70 76 79 78 76 73 71 70 71 69 64 58 50 43 39 35 31 31 33 33 29 24
0 0 0 0 0 0 0 0 0 0 0 0 0 1 4 8 13 21 30 40 50 58 65 72 76 76 72 68 67 69 71 69 65 60 53 44 38 33 30 30 34 35 30 25
0 0 0 0 0 0 0 0 0 0 0 0 0 1 3 6 10 19 32 40 46 52 60 67 72 72 67 63 62 65 67 66 63 59 53 46 40 34 31 31 34 36 33 27
0 0 0 0 0 0 0 0 0 0 0 0 0 2 4 5 6 16 30 39 43 48 55 62 67 67 64 61 61 63 66 66 62 58 54 49 43 35 30 29 32 35 32 28
0 0 0 0 0 0 0 0 0 0 0 0 0 2 5 5 5 14 29 37 41 46 53 58 61 62 60 59 61 66 68 67 62 56 53 49 42 32 26 26 27 27 24 21
0 0 0 0 0 0 0 0 0 0 0 0 0 2 5 6 6 15 28 37 41 47 54 58 58 55 52 53 58 64 66 64 58 51 47 43 35 29 24 22 21 19 17 14
0 0 0 0 0 0 0 0 0 0 0 0 0 1 4 6 8 15 26 36 42 47 52 56 54 50 47 50 54 57 58 57 52 46 38 30 28 26 24 20 17 17 16 14
0 0 0 0 0 0 0 0 0 0 0 0 0 0 2 5 7 13 23 34 40 43 47 51 52 49 47 49 51 51 49 47 45 39 29 24 25 28 27 23 19 20 19 18
0 0 0 0 0 0 0 0 0 0 0 0 0 0 1 3 6 11 21 33 39 41 46 51 55 54 52 52 53 50 44 40 36 30 25 23 26 30 30 28 26 24 21 18
0 0 0 0 0 0 0 0 0 0 0 0 0 1 2 3 5 12 22 35 43 46 51 56 61 63 62 62 59 50 41 34 27 24 24 24 24 25 27 28 29 28 25 22
0 0 0 0 0 0 0 0 0 0 0 0 1 2 3 4 7 15 25 36 48 55 58 62 68 71 71 70 64 53 41 33 26 24 26 26 22 21 23 24 25 26 25 24
0 0 0 0 0 0 0 0 0 0 0 0 1 3 4 7 11 19 28 40 54 62 64 67 72 74 74 72 67 58 47 38 30 27 27 27 25 23 23 22 20 21 23 23
0 0 0 0 0 0 0 0 0 0 0 0 1 4 8 11 16 22 32 45 57 65 68 70 72 72 72 71 67 60 52 43 35 30 28 28 27 26 23 21 20 19 20 20
0 0 0 0 0 0 0 0 0 0 1 1 4 7 11 15 18 22 32 44 54 65 72 73 72 72 71 69 65 58 50 42 37 32 29 27 26 24 21 19 18 17 14 13
0 0 0 0 0 0 0 1 1 3 7 9 11 13 13 15 19 23 30 41 53 66 74 74 73 72 72 69 62 53 45 38 34 29 24 24 24 21 18 17 16 13 9 7
0 0 0 0 0 0 2 4 4 7 15 20 21 20 18 17 19 26 35 45 58 69 73 74 72 71 72 69 60 49 39 32 27 23 21 21 21 19 16 15 14 11 8 6
0 0 0 0 0 1 4 7 7 10 19 28 31 31 31 29 29 36 45 53 63 71 73 72 72 72 73 70 61 49 38 30 25 23 23 22 20 17 15 14 12 10 9 8
0 0 0 0 1 3 7 9 12 18 28 36 40 43 45 46 46 48 53 57 64 71 74 72 72 73 73 70 62 52 42 33 27 24 23 21 17 13 12 11 11 11 10 9
0 1 2 2 4 9 15 17 21 31 39 43 45 47 51 54 55 56 57 59 64 71 74 72 71 71 68 64 58 51 44 36 28 24 22 20 14 9 7 8 10 11 10 8
2 5 7 7 10 16 20 22 26 31 38 42 43 44 47 51 53 54 57 60 64 68 70 68 67 64 61 56 51 46 41 35 29 26 23 20 15 10 8 7 8 9 8 7
5 7 10 10 12 16 20 21 22 25 29 34 36 37 40 43 45 47 53 59 62 64 63 61 58 55 52 46 40 38 35 31 29 27 24 20 16 11 10 8 6 6 6 6
8 10 11 11 11 13 16 18 20 23 26 28 28 31 33 35 37 39 44 50 53 55 54 51 48 47 44 37 31 29 29 27 26 25 22 17 13 10 8 6 4 3 3 3
10 12 14 14 13 12 13 16 18 22 27 27 25 28 30 32 34 33 35 38 42 45 45 43 42 42 39 33 27 26 25 24 23 22 19 14 10 8 6 4 3 2 1 1

GEFSCGP_con_prob3kmehi_162.txt.gz
EHI
0 0 0 0 0 0 0 0 0 0 0 1 4 13 28 42 52 56 60 70 78 78 77 78 80 80 77 69 61 52 47 45 41 34 27 21 17 16 12 6 3 3 3 3
0 0 0 0 0 0 0 0 0 0 0 0 2 9 22 35 47 56 62 70 76 78 79 80 80 81 78 71 63 54 48 46 42 34 25 17 13 13 11 8 4 2 2 2
0 0 0 0 0 0 0 0 0 0 0 0 1 4 12 25 40 53 61 66 72 78 81 82 82 80 78 72 65 56 49 45 41 31 24 18 13 12 12 9 5 2 1 1
0 0 0 0 0 0 0 0 0 0 0 0 0 1 6 20 37 52 59 63 68 75 80 82 81 78 75 70 65 56 49 44 38 31 26 21 18 14 11 8 5 2 0 1
0 0 0 0 0 0 0 0 0 0 0 0 0 1 5 18 35 49 59 63 67 74 80 81 77 73 69 66 63 56 49 43 38 34 30 24 18 13 8 6 5 3 0 0
0 0 0 0 0 0 0 0 0 0 0 0 0 1 4 14 30 45 57 63 68 74 79 78 74 67 64 62 59 53 47 43 41 39 33 25 17 12 8 7 7 5 2 1
0 0 0 0 0 0 0 0 0 0 0 0 0 0 3 10 24 41 53 59 66 73 75 73 70 64 59 56 53 49 44 40 39 38 31 22 16 13 11 9 8 7 5 4
0 0 0 0 0 0 0 0 0 0 0 0 0 1 5 12 24 38 49 57 64 68 66 65 64 59 52 49 48 44 38 35 33 30 25 19 15 12 10 8 7 6 6 5
0 0 0 0 0 0 0 0 0 0 0 0 0 2 8 18 28 38 49 56 59 59 56 55 55 51 45 42 42 39 33 28 25 22 20 17 14 11 7 5 4 5 5 5
0 0 0 0 0 0 0 0 0 0 0 0 0 1 8 20 31 40 47 51 51 51 49 48 47 43 38 36 35 34 30 24 19 16 15 14 12 10 6 3 1 2 4 4
0 0 0 0 0 0 0 0 0 0 0 0 0 0 5 17 31 39 42 43 44 45 47 47 44 39 35 34 31 29 26 21 15 12 12 12 10 8 6 2 0 0 1 2
0 0 0 0 0 0 0 0 0 0 0 0 0 0 3 13 27 36 37 38 40 44 48 49 46 42 39 36 30 27 24 18 14 13 13 11 10 9 7 3 1 1 1 2
0 0 0 0 0 0 0 0 0 0 0 0 0 0 2 9 21 31 35 35 37 42 48 50 49 47 45 40 33 30 26 20 16 15 13 12 11 11 10 6 3 3 4 4
0 0 0 0 0 0 0 0 0 0 0 0 0 1 2 8 18 28 34 34 35 41 48 50 49 48 46 42 38 34 29 22 19 16 14 12 11 11 10 7 5 5 5 5
0 0 0 0 0 0 0 0 0 0 0 0 1 2 4 10 20 29 34 36 38 42 49 52 50 48 45 42 40 36 28 21 17 15 13 11 9 8 6 4 4 4 4 4
0 0 0 0 0 0 0 0 1 2 3 3 3 5 8 14 23 30 35 39 41 45 50 54 55 53 47 42 38 33 26 18 12 11 11 9 7 5 3 2 2 3 3 3
0 0 0 0 0 0 0 1 4 9 11 11 10 12 16 21 27 33 39 43 45 46 50 55 58 56 48 40 35 30 24 16 9 6 7 6 5 4 3 3 3 3 3 2
0 0 0 0 0 0 0 1 6 13 19 20 21 25 27 30 35 39 43 47 48 47 49 55 57 54 47 39 33 27 22 16 9 5 4 5 4 5 5 6 5 3 1 1
0 0 0 0 0 0 1 3 7 14 22 28 31 35 38 41 43 43 44 49 52 49 50 53 55 54 48 40 33 27 22 16 9 4 3 4 6 7 7 7 5 2 0 0
0 0 0 0 0 1 4 7 9 13 21 29 34 38 43 47 47 42 41 50 55 54 54 54 54 53 47 39 32 27 21 15 9 6 5 6 7 8 6 5 2 0 0 0
0 0 0 0 0 2 7 9 10 12 21 30 34 39 45 49 47 42 42 49 56 58 56 53 50 47 42 36 30 24 18 14 10 8 7 7 7 5 3 1 0 0 0 0
0 0 0 0 0 2 6 7 7 12 22 31 36 39 44 47 45 44 46 48 52 54 52 48 45 42 38 34 28 21 15 12 10 8 7 6 4 2 0 0 0 0 0 0
1 1 1 2 2 3 5 6 9 14 22 29 33 35 39 41 41 42 45 45 45 46 45 43 42 40 35 29 23 17 13 10 8 6 5 4 2 1 0 0 0 0 0 0
2 2 4 5 5 7 8 10 14 19 23 25 26 28 32 33 32 33 36 37 36 36 36 37 37 34 29 22 17 14 11 9 7 6 5 3 2 0 0 0 0 0 0 0
4 4 5 6 7 9 12 14 17 22 25 23 22 21 22 22 22 22 25 27 26 26 27 28 27 25 20 16 13 13 11 8 6 5 5 4 2 0 0 0 0 0 0 0
4 3 4 5 6 8 12 14 16 20 23 22 20 16 13 14 15 15 17 20 20 21 23 22 21 18 15 13 12 11 10 8 5 4 4 2 1 0 1 1 1 0 0 0

GEFSCGP_con_prob3kmehi_168.txt.gz
EHI
0 0 0 0 0 0 0 0 0 0 1 2 4 8 13 14 16 22 27 29 26 19 15 17 19 17 18 20 20 19 18 15 14 13 11 9 6 2 0 0 0 0 0 0
0 0 0 0 0 0 0 0 0 0 1 2 4 7 10 11 15 23 29 32 31 26 22 23 24 23 23 25 23 21 18 16 16 16 13 9 5 2 1 0 0 0 0 0
0 0 0 0 0 0 0 0 0 0 0 1 2 4 6 9 15 24 31 34 36 33 31 32 33 31 30 30 28 24 19 16 16 16 14 11 7 4 3 2 1 1 0 0
0 0 0 0 0 0 0 0 0 0 0 0 1 3 5 7 14 23 32 36 36 35 36 39 40 37 33 30 28 24 18 15 14 15 15 14 11 8 5 3 2 2 1 0
0 0 0 0 0 0 0 0 0 0 0 0 0 1 2 5 10 18 30 38 39 38 37 39 41 37 33 29 26 22 19 16 15 16 16 15 13 9 5 2 1 1 1 0
0 0 0 0 0 0 0 0 0 0 0 0 0 0 0 2 6 13 25 38 43 41 37 36 36 34 32 31 28 24 20 18 17 16 14 13 10 6 3 2 1 1 0 0
0 0 0 0 0 0 0 0 0 0 0 0 0 0 0 2 5 12 23 37 45 42 35 31 29 30 32 33 29 22 18 16 15 14 12 9 6 4 3 3 2 1 0 0
0 0 0 0 0 0 0 0 0 0 0 0 0 0 1 3 7 13 22 34 42 39 33 27 24 25 29 30 26 19 14 12 11 11 10 6 4 3 3 3 3 2 1 0
0 0 0 0 0 0 0 0 0 0 0 0 0 0 1 3 9 14 20 28 34 35 31 25 21 21 24 25 22 16 13 11 9 9 8 5 4 3 3 3 3 3 2 1
0 0 0 0 0 0 0 0 0 0 0 0 0 0 0 3 9 14 17 22 26 30 30 25 19 19 20 21 19 16 12 9 7 6 5 5 4 3 3 4 4 3 3 3
0 0 0 0 0 0 0 0 0 0 0 0 0 0 0 2 8 14 16 17 22 26 28 25 20 17 17 19 20 17 11 7 5 4 4 5 5 4 4 4 4 4 4 4
0 0 0 0 0 0 0 0 0 0 0 0 0 0 0 1 6 12 15 16 20 23 24 24 22 18 18 21 22 19 13 7 4 3 4 5 6 6 5 4 3 3 4 5
0 0 0 0 0 0 0 0 0 0 0 0 0 0 1 3 6 11 15 16 18 20 20 22 24 24 24 22 21 18 14 9 6 4 3 4 6 6 5 3 2 3 4 4
0 0 0 0 0 0 0 0 0 0 0 0 0 0 1 3 6 10 13 15 17 17 18 22 26 28 28 23 19 16 14 10 7 4 3 4 5 5 5 4 3 3 3 3
0 0 0 0 0 1 1 1 1 1 1 0 0 0 1 4 7 9 12 16 18 18 19 23 27 29 28 23 18 14 12 10 8 5 3 3 4 5 5 4 3 3 3 3
0 0 0 0 0 1 2 2 2 2 1 0 0 1 4 7 11 12 15 21 23 22 23 25 27 27 25 22 17 13 10 8 7 6 4 3 4 4 5 4 3 3 3 3
0 0 0 0 0 1 2 1 2 3 2 2 2 5 8 12 14 15 18 24 26 26 27 28 27 24 22 21 16 11 7 5 6 6 5 4 4 4 4 5 4 3 3 3
0 0 0 0 0 0 0 1 3 5 5 4 6 10 13 15 18 18 19 22 24 25 27 27 25 21 19 19 16 10 6 4 4 4 5 5 4 4 4 4 3 3 3 3
0 0 0 0 0 0 0 1 4 6 6 6 7 11 15 18 20 22 22 21 21 22 24 24 22 18 16 15 14 11 7 4 3 3 4 5 6 5 4 3 2 2 3 2
0 0 0 0 0 0 1 1 3 4 5 6 6 9 14 17 19 23 25 23 21 22 23 24 22 17 14 14 15 14 9 6 4 3 3 4 5 6 6 4 3 2 1 1
0 0 0 0 0 0 2 2 1 2 5 8 8 9 14 18 20 24 27 25 23 23 24 24 23 18 15 14 16 15 10 7 5 4 3 3 4 4 4 3 2 1 0 0
0 0 0 0 0 0 1 2 1 2 6 9 11 13 18 24 28 30 28 25 23 23 23 25 22 18 16 16 16 13 9 6 4 3 3 2 1 2 2 1 1 1 0 0
1 0 1 1 1 2 3 3 3 4 6 8 11 16 20 26 30 30 26 22 22 23 22 22 21 17 15 15 14 10 7 6 5 3 2 1 1 1 1 1 0 0 0 0
2 2 3 4 5 6 7 6 5 5 7 9 11 15 19 21 22 21 20 20 21 22 20 20 19 16 14 11 8 6 5 6 6 4 2 1 1 2 2 1 0 0 1 1
4 3 4 5 6 7 7 7 7 8 9 11 12 13 15 16 15 13 13 15 18 19 19 19 18 14 10 7 4 2 3 5 5 3 1 1 2 3 2 1 0 0 0 0
3 2 3 3 4 4 4 5 7 9 10 12 12 12 12 12 12 10 10 11 14 16 18 19 17 12 8 5 2 1 1 2 2 1 0 1 2 3 2 1 0 0 0 0

GEFSCGP_con_prob3kmehi_174.txt.gz
EHI
0 0 0 0 0 0 0 0 0 0 0 0 0 1 6 11 14 17 24 30 30 30 35 39 38 36 38 41 41 38 34 30 26 21 16 10 4 3 4 4 2 1 0 0
0 0 0 0 0 0 0 0 0 0 0 0 0 1 6 10 14 17 22 28 31 33 37 42 43 41 43 47 46 42 39 35 29 23 17 12 7 5 4 3 2 1 1 1
0 0 0 0 0 0 0 0 0 0 0 0 0 1 5 11 15 19 22 27 33 36 40 46 49 48 48 49 48 44 43 40 36 29 21 17 16 14 10 6 4 2 2 2
0 0 0 0 0 0 0 0 0 0 0 0 0 1 4 9 15 20 24 29 35 37 40 46 50 51 49 47 44 41 42 42 42 38 28 23 23 21 16 9 5 3 3 3
0 0 0 0 0 0 0 0 0 0 0 0 0 0 2 5 10 17 25 31 36 37 38 42 46 48 47 44 40 38 40 42 44 41 33 28 26 24 17 11 7 4 3 3
0 0 0 0 0 0 0 0 0 0 0 0 0 0 1 3 6 12 21 30 35 36 37 39 42 43 41 39 38 39 40 40 39 36 33 30 29 25 20 15 11 7 4 3
0 0 0 0 0 0 0 0 0 0 0 0 0 0 1 2 4 9 17 28 33 35 38 40 42 41 36 34 37 41 42 39 33 30 29 29 29 27 22 16 12 8 5 4
0 0 0 0 0 0 0 0 0 0 0 0 0 0 0 2 5 8 15 25 33 37 40 40 41 38 34 32 35 40 42 38 30 26 26 25 24 22 19 14 10 8 7 7
0 0 0 0 0 0 0 0 0 0 0 0 0 0 1 2 5 9 16 25 34 39 41 41 40 37 33 31 31 35 38 37 31 27 23 19 16 14 13 11 9 9 11 11
0 0 0 0 0 0 0 0 0 0 0 0 0 0 1 2 5 10 16 25 36 42 44 43 41 38 34 31 30 31 35 36 33 28 21 14 10 9 9 10 11 12 13 14
0 0 0 0 0 0 0 0 0 0 0 0 0 0 0 1 4 10 17 27 40 48 49 49 47 42 39 35 32 31 33 35 33 27 20 14 11 10 9 10 12 11 11 12
0 0 0 0 0 0 0 0 0 0 0 0 0 0 0 1 4 10 19 32 45 52 55 55 54 50 47 40 35 33 32 30 29 26 21 17 16 14 12 13 12 11 9 9
0 0 0 0 0 0 0 0 0 0 0 0 0 0 1 2 4 10 22 38 48 53 57 59 60 59 54 47 40 35 30 27 26 25 23 22 21 18 16 15 14 13 12 11
0 0 0 0 0 0 0 0 0 0 0 0 0 0 1 3 6 11 23 38 48 53 56 60 64 64 61 54 46 37 32 30 30 28 27 26 23 19 17 17 17 16 14 13
0 0 0 0 0 0 0 0 0 0 0 0 0 0 2 5 7 11 21 35 46 53 56 60 65 68 66 60 51 43 39 38 36 31 27 25 22 19 18 17 17 17 15 13
0 0 0 0 0 0 0 0 0 0 0 0 0 1 5 9 10 11 18 30 42 51 56 61 68 71 69 63 57 50 44 40 38 32 26 22 20 18 16 14 14 14 13 12
0 0 0 0 0 0 0 0 0 0 0 0 1 3 7 11 14 15 17 24 35 46 56 64 69 73 72 66 60 53 45 41 37 31 25 20 17 16 13 9 8 10 11 11
0 0 0 0 0 0 1 1 1 1 2 2 4 5 8 13 17 19 21 26 35 44 54 62 67 72 73 68 59 50 44 42 37 30 24 18 14 13 11 9 7 9 11 12
0 0 0 0 0 0 1 2 3 3 5 7 9 11 14 17 18 21 29 38 45 48 53 59 65 70 71 66 57 49 44 41 35 29 24 19 13 11 11 12 12 13 14 14
0 0 0 0 0 0 1 2 3 4 8 14 17 19 24 25 25 29 39 49 56 56 56 60 66 69 68 64 58 52 46 39 33 27 23 19 14 11 11 14 16 16 16 16
0 0 0 0 0 1 3 4 5 9 17 23 24 25 29 34 39 43 49 54 58 57 55 59 64 66 64 60 57 52 45 38 32 26 21 18 15 11 11 14 16 16 15 14
2 1 1 1 2 6 10 12 15 22 31 34 31 30 33 39 45 49 51 53 54 53 51 53 57 60 58 54 51 49 44 39 33 26 21 18 15 11 11 14 15 14 13 12
5 4 4 5 7 11 17 23 29 34 39 39 37 35 34 35 39 42 44 47 49 50 49 49 51 52 52 49 48 47 45 40 34 28 23 20 18 16 14 14 13 11 10 9
8 8 9 11 14 17 23 29 33 37 39 40 40 37 32 29 31 32 33 37 42 45 46 47 45 45 45 45 45 45 43 39 34 29 25 23 22 19 15 12 10 9 8 7
11 14 16 18 20 22 24 26 29 32 35 37 38 34 28 24 24 24 25 27 32 36 39 40 39 37 36 36 36 37 36 34 31 27 23 19 18 15 12 11 9 6 5 5
13 17 20 20 22 24 24 24 25 28 31 33 34 30 25 21 20 21 21 23 27 31 33 34 33 30 28 27 28 29 29 28 26 23 18 13 10 9 9 11 9 6 4 4

GEFSCGP_con_prob3kmehi_180.txt.gz
EHI
0 0 0 0 0 0 0 0 0 0 0 0 1 5 7 8 11 19 34 51 62 69 71 72 74 75 76 78 76 70 64 58 50 42 37 34 32 32 32 32 29 23 19 18
0 0 0 0 0 0 0 0 0 0 0 0 1 4 8 9 11 18 31 47 60 69 76 79 79 77 78 80 79 73 67 63 55 45 37 32 31 32 33 33 31 26 22 20
0 0 0 0 0 0 0 0 0 0 0 0 0 3 8 10 10 14 24 39 54 66 77 84 84 81 81 82 79 73 69 65 60 50 40 34 35 35 33 32 30 27 25 23
0 0 0 0 0 0 0 0 0 0 0 0 0 3 8 10 10 12 20 33 47 60 72 83 85 82 82 82 79 74 70 67 61 52 44 42 41 38 32 28 28 27 25 23
0 0 0 0 0 0 0 0 0 0 0 0 0 1 4 8 10 14 23 34 46 56 67 79 83 83 83 84 81 78 75 70 62 52 47 45 41 35 28 25 25 25 23 22
0 0 0 0 0 0 0 0 0 0 0 0 0 0 2 5 8 14 24 37 50 59 67 76 81 83 84 84 81 79 78 71 62 52 46 44 39 33 28 25 25 24 22 21
0 0 0 0 0 0 0 0 0 0 0 0 0 0 2 4 7 11 22 38 52 61 68 75 79 81 82 80 78 77 75 70 61 52 47 44 40 35 31 29 28 25 21 20
0 0 0 0 0 0 0 0 0 0 0 0 0 1 3 5 6 11 21 36 49 58 66 72 75 77 76 75 74 75 75 69 61 54 51 49 44 38 33 30 29 26 23 22
0 0 0 0 0 0 0 0 0 0 0 0 0 2 5 6 7 11 22 35 44 54 62 67 71 72 72 72 73 75 75 70 63 58 54 49 45 39 32 29 28 26 25 25
0 0 0 0 0 0 0 0 0 0 0 0 0 1 5 7 8 12 23 34 41 49 57 63 67 70 70 73 74 74 74 70 64 59 52 46 41 36 31 29 29 29 27 26
0 0 0 0 0 0 0 0 0 0 0 0 0 0 2 5 8 13 24 33 37 43 52 61 68 70 71 73 74 75 75 70 63 56 49 44 38 33 31 30 30 30 28 26
0 0 0 0 0 0 0 0 0 0 0 0 0 0 2 4 8 16 25 33 39 43 51 61 70 73 74 74 76 76 76 70 63 56 50 45 40 34 31 29 29 30 28 26
0 0 0 0 0 0 0 0 0 0 0 0 0 1 2 4 10 18 28 37 43 48 56 65 74 77 78 79 79 77 75 72 65 59 55 50 44 37 33 30 29 30 29 27
0 0 0 0 0 0 0 0 0 0 0 0 1 2 3 6 12 21 32 42 48 54 63 71 79 83 83 83 82 79 75 72 67 63 60 55 47 40 34 31 29 29 28 27
0 0 0 0 0 0 0 0 0 0 0 1 3 5 7 11 16 23 34 46 53 59 66 75 82 86 87 85 82 78 74 71 67 64 61 56 46 39 34 31 28 28 28 28
0 0 0 0 0 0 0 0 0 0 0 1 4 9 14 18 22 28 35 46 56 62 68 76 83 87 88 86 81 77 74 71 67 63 60 55 45 36 32 29 26 26 27 27
0 0 0 0 0 0 0 1 1 1 2 4 7 13 21 27 32 37 41 46 55 65 71 78 84 87 87 86 82 77 74 71 68 65 61 55 46 37 34 30 26 25 26 26
1 1 0 0 0 0 1 2 2 2 6 9 12 17 25 32 38 45 51 54 58 66 74 79 82 84 85 85 83 78 72 69 68 66 61 54 46 41 38 34 30 29 28 27
2 2 1 0 0 0 2 3 3 3 8 12 15 19 22 26 35 47 57 62 64 67 71 76 78 80 83 84 83 78 73 69 67 64 59 51 44 40 37 34 32 32 30 29
2 2 1 0 0 1 2 3 2 5 11 16 20 24 26 29 41 55 64 66 66 67 69 73 76 79 82 83 82 78 75 73 68 63 56 48 42 37 34 32 30 29 30 29
1 1 0 0 1 3 5 5 7 16 25 30 34 38 43 50 60 67 70 71 69 68 70 74 76 78 81 81 79 77 75 72 68 62 55 48 42 37 33 30 28 28 29 28
1 2 3 3 4 9 14 17 24 37 45 47 50 54 60 66 69 69 68 67 67 66 68 72 75 77 79 79 76 73 70 67 64 59 53 48 43 35 30 29 27 26 26 26
5 7 9 10 12 19 27 34 42 50 55 56 59 63 65 65 64 60 57 57 58 59 62 68 72 74 74 73 71 68 64 62 58 55 51 46 40 34 30 28 25 23 22 22
9 12 16 20 23 27 33 40 45 47 51 55 58 60 60 59 56 52 49 48 50 52 55 60 65 68 68 67 65 61 58 57 55 52 49 43 36 32 30 27 23 19 17 16
12 15 19 25 29 30 31 34 37 41 46 49 52 53 52 51 48 45 44 45 44 46 49 53 56 57 57 58 56 53 52 54 52 48 43 37 30 27 26 24 19 14 11 10
14 16 19 24 30 31 30 30 34 39 42 45 48 48 46 45 43 42 44 44 42 42 47 51 50 47 47 48 47 47 50 52 50 45 38 31 24 21 22 21 15 8 5 4

GEFSCGP_con_prob3kmehi_186.txt.gz
EHI
0 0 0 0 0 0 0 0 0 0 0 0 1 1 1 4 10 16 22 29 36 42 46 47 49 51 48 42 38 35 31 27 21 17 13 10 7 6 5 4 4 6 8 9
0 0 0 0 0 0 0 0 0 0 0 1 2 2 1 4 9 15 22 30 37 43 47 50 53 55 52 45 39 35 32 27 21 17 14 11 8 6 5 4 4 6 8 9
0 0 0 0 0 0 0 0 0 0 0 1 2 2 1 3 8 14 22 31 39 44 47 53 59 61 58 50 41 36 32 27 22 20 18 14 10 8 7 5 4 5 6 7
0 0 0 0 0 0 0 0 0 0 0 0 1 1 0 3 9 16 24 33 40 44 47 53 61 66 64 56 46 38 32 28 25 23 21 18 15 12 9 6 4 4 5 6
0 0 0 0 0 0 0 0 0 0 0 0 0 0 0 4 11 19 26 35 43 47 49 54 62 67 67 61 52 44 37 31 26 24 22 19 17 15 11 7 5 3 4 5
0 0 0 0 0 0 0 0 0 0 0 0 0 0 0 3 10 18 27 38 47 52 54 58 64 69 69 65 59 52 45 36 27 23 21 18 17 16 13 9 6 5 4 4
0 0 0 0 0 0 0 0 0 0 0 0 0 0 0 2 7 15 26 39 50 57 61 63 67 71 70 68 63 56 48 38 30 25 22 20 17 15 13 10 9 8 7 6
0 0 0 0 0 0 0 0 0 0 0 0 0 0 1 4 8 15 26 39 51 60 64 66 67 67 68 67 62 55 47 38 31 28 25 22 18 14 13 12 11 11 10 9
0 0 0 0 0 0 0 0 0 0 0 0 0 1 3 7 12 18 27 37 47 55 60 62 63 62 62 61 56 50 45 38 32 29 27 22 17 15 15 14 11 10 9 9
0 0 0 0 0 0 0 0 0 0 0 0 0 1 4 10 16 22 27 34 42 49 52 54 57 57 57 54 48 44 42 38 33 28 25 19 16 16 16 13 9 6 6 6
0 0 0 0 0 0 0 0 0 0 0 0 0 0 4 11 20 26 29 33 41 46 47 48 51 55 56 52 45 42 40 38 35 30 24 19 16 15 14 11 7 5 4 4
0 0 0 0 0 0 0 0 0 0 0 0 0 1 5 13 22 30 33 34 39 45 46 47 49 53 57 57 51 46 44 42 39 35 27 19 15 13 11 10 9 6 4 4
0 0 0 0 0 0 0 0 0 0 0 0 1 2 7 16 25 32 36 37 39 44 48 51 52 55 60 62 58 53 50 47 43 38 29 19 12 10 10 10 9 6 5 6
0 0 0 0 0 0 0 0 0 0 0 1 2 4 10 18 25 30 34 37 42 47 52 56 57 59 63 65 62 56 52 49 45 39 30 20 12 10 10 9 7 5 5 6
0 0 0 0 0 0 0 0 0 0 0 2 4 7 11 17 21 25 28 35 42 47 53 58 60 62 66 66 61 54 49 48 45 40 33 23 15 13 11 8 6 4 3 3
0 0 0 0 0 0 0 0 0 1 1 3 7 11 13 16 19 22 28 36 41 46 52 57 61 65 68 68 63 55 50 46 44 41 35 26 20 16 12 9 7 5 4 4
0 0 0 0 0 0 0 0 1 3 4 5 8 12 14 16 19 24 31 36 40 43 49 55 60 66 68 67 65 60 55 49 44 41 36 28 21 15 10 8 7 7 7 7
0 0 0 0 0 0 0 0 3 8 10 8 7 10 13 16 21 28 33 35 37 40 45 51 56 62 65 64 63 62 59 54 48 42 35 28 21 14 9 7 7 8 9 9
0 0 0 0 0 0 0 1 4 12 16 13 10 12 15 19 25 31 35 37 39 42 44 47 51 56 60 60 58 57 58 57 52 43 35 29 24 18 12 9 9 9 10 9
0 0 0 0 0 0 1 2 4 11 15 15 16 19 20 20 24 31 37 41 44 46 45 46 48 51 56 57 54 52 52 52 49 41 34 30 26 21 15 11 10 10 10 9
0 0 0 0 0 0 2 4 5 6 10 15 21 23 23 22 25 33 40 44 46 47 49 49 48 47 49 52 52 51 48 44 40 37 32 28 25 20 14 10 10 10 9 8
0 0 0 0 0 0 3 5 5 5 9 17 24 26 27 31 35 39 43 45 45 47 49 49 47 43 43 46 49 50 45 38 33 31 28 23 20 16 12 9 9 9 7 6
1 1 2 3 3 4 7 9 8 9 14 21 27 30 34 40 43 43 44 43 42 42 44 46 44 41 40 42 46 46 41 35 31 28 24 20 17 14 12 11 9 8 6 5
3 4 7 8 8 9 12 13 13 14 17 22 26 30 37 41 42 41 41 39 36 36 38 41 41 40 39 40 42 39 35 32 29 25 21 18 15 13 12 11 9 7 5 4
4 6 8 9 9 11 12 13 15 17 19 21 23 27 34 39 38 37 35 33 30 30 32 34 36 36 34 34 34 31 28 28 25 22 19 16 14 12 11 10 7 5 3 3
3 5 6 6 7 9 10 11 14 17 19 20 22 25 33 37 36 33 30 28 27 27 28 28 30 31 29 27 27 24 23 24 23 20 18 15 13 11 10 9 6 4 2 1

GEFSCGP_con_prob3kmehi_192.txt.gz
EHI
0 0 0 0 0 0 0 0 0 0 0 0 0 0 1 3 4 4 5 6 6 5 5 8 11 12 16 21 23 23 24 22 19 16 14 12 9 5 2 1 0 0 1 0
0 0 0 0 0 0 0 0 0 0 0 0 0 0 1 3 3 3 5 6 6 7 8 12 15 16 18 22 24 23 23 21 18 15 13 11 9 7 4 2 1 1 1 1
0 0 0 0 0 0 0 0 0 0 0 0 0 0 0 2 2 2 3 4 6 8 12 16 19 19 19 22 24 23 21 18 16 15 13 12 11 10 7 5 3 1 1 0
0 0 0 0 0 0 0 0 0 0 0 0 0 0 0 1 2 2 3 4 6 10 15 19 21 21 21 23 24 21 17 14 14 15 15 14 14 13 10 6 4 2 0 0
0 0 0 0 0 0 0 0 0 0 0 0 0 0 0 1 2 4 5 7 9 13 17 20 22 24 25 25 25 20 15 12 12 13 14 15 15 13 9 5 2 1 0 0
0 0 0 0 0 0 0 0 0 0 0 0 0 0 0 1 2 5 8 11 13 17 21 22 24 26 29 30 29 24 17 13 11 11 11 12 12 11 8 4 2 1 0 0
0 0 0 0 0 0 0 0 0 0 0 0 0 0 0 0 1 4 9 13 14 18 23 25 25 27 32 35 35 31 24 17 13 11 9 9 10 9 7 5 4 3 1 1
0 0 0 0 0 0 0 0 0 0 0 0 0 0 0 1 2 5 10 12 14 18 23 26 26 28 34 40 41 38 32 23 17 14 10 9 9 9 7 5 4 4 3 2
0 0 0 0 0 0 0 0 0 0 0 0 0 0 0 1 5 8 12 14 15 18 22 25 26 28 32 38 42 42 37 28 21 17 13 11 9 8 7 6 5 4 4 3
0 0 0 0 0 0 0 0 0 0 0 0 0 0 0 2 5 10 14 17 17 18 22 25 28 29 30 33 37 39 37 30 23 19 15 11 8 8 8 7 6 5 4 3
0 0 0 0 0 0 0 0 0 0 0 0 0 0 1 2 3 7 13 16 17 18 21 25 29 32 31 31 33 35 34 31 25 20 16 11 8 9 9 7 6 5 4 3
0 0 0 0 0 0 0 0 0 0 0 0 0 1 2 2 2 4 10 14 15 17 19 23 30 33 34 34 34 33 32 29 25 21 16 11 9 9 9 8 6 5 4 4
0 0 0 0 0 0 0 0 0 0 0 0 0 1 2 2 1 3 8 11 14 17 21 25 31 34 34 34 34 33 31 28 24 21 17 13 10 9 9 8 7 6 6 6
0 0 0 0 0 0 0 0 0 0 0 0 0 1 2 1 0 2 7 10 14 19 25 30 33 33 33 33 34 35 33 29 25 22 19 15 11 10 9 8 8 7 7 6
0 0 0 0 0 0 0 0 0 0 0 0 0 1 1 1 0 2 7 12 16 20 25 31 34 35 35 36 38 38 35 32 30 27 23 18 12 9 7 7 8 8 7 6
0 0 0 0 0 0 0 0 0 0 0 0 0 0 1 1 1 2 7 15 19 20 23 26 31 35 37 39 42 41 38 36 36 33 28 22 15 10 8 7 7 7 6 6
0 0 0 0 0 0 0 0 0 0 0 0 0 0 1 2 3 2 7 16 20 21 21 22 25 30 34 38 40 42 41 39 37 34 29 24 18 13 10 8 7 7 6 5
0 0 0 0 0 0 0 0 0 0 0 0 0 2 3 3 3 3 7 15 20 19 19 19 21 26 31 35 38 40 42 40 36 31 25 21 18 16 12 10 8 7 6 4
0 0 0 0 0 0 0 0 0 0 0 1 2 4 5 4 4 3 7 15 19 18 18 20 24 29 33 35 36 39 40 38 35 29 22 18 16 16 15 12 10 9 6 5
0 0 0 0 0 0 0 0 0 0 1 1 4 6 6 5 5 6 10 17 20 19 20 23 27 32 36 36 35 36 36 35 32 27 21 17 16 17 16 13 10 8 6 5
0 0 0 0 0 0 0 0 0 0 0 1 4 7 7 7 7 11 16 20 22 21 21 25 30 34 37 38 37 35 33 31 29 24 20 16 15 16 13 10 6 4 3 3
0 0 0 0 0 0 0 0 0 0 1 1 4 7 8 8 10 16 20 23 24 22 21 26 32 34 35 38 39 36 31 28 27 24 19 15 13 11 8 5 3 2 2 2
0 0 0 1 1 1 1 2 2 2 2 2 3 7 9 9 10 15 20 22 22 21 22 27 31 31 31 34 36 34 30 28 28 25 20 15 12 9 5 3 3 3 3 3
0 0 2 4 5 4 4 4 5 4 4 3 3 7 8 7 8 12 17 20 20 21 23 27 29 27 26 29 32 31 29 29 29 25 20 16 14 11 6 3 3 4 5 5
0 0 2 4 6 6 5 5 5 6 5 3 3 6 6 6 7 11 15 18 19 20 22 25 26 24 23 24 26 26 26 27 28 24 20 17 15 11 6 4 3 3 4 5
0 0 1 2 4 5 4 4 5 5 4 3 4 5 5 5 9 12 14 16 19 20 20 22 23 23 22 22 23 23 24 26 27 24 20 16 13 9 6 4 4 3 4 4

GEFSCGP_con_prob3kmehi_198.txt.gz
EHI
0 0 0 0 0 0 0 0 0 0 0 0 0 0 1 3 5 8 13 16 16 15 15 16 19 20 22 29 37 41 42 43 39 30 21 16 13 9 4 2 2 3 3 3
0 0 0 0 0 0 0 0 0 0 0 0 0 0 0 2 4 7 11 12 12 14 17 19 20 22 26 34 40 42 44 45 40 31 22 16 13 9 4 3 3 4 4 3
0 0 0 0 0 0 0 0 0 0 0 0 0 0 0 2 5 8 10 8 8 12 18 22 22 22 26 35 41 42 45 47 42 32 23 18 15 12 8 7 7 8 7 6
0 0 0 0 0 0 0 0 0 0 0 0 0 0 1 5 9 11 11 10 10 13 19 24 25 23 24 30 37 41 45 46 41 32 24 20 18 14 11 11 11 12 11 10
0 0 0 0 0 0 0 0 0 0 0 0 0 0 1 5 10 11 13 15 17 18 22 26 28 26 25 28 33 40 47 48 42 34 27 23 17 12 10 11 13 14 14 13
0 0 0 0 0 0 0 0 0 0 0 0 0 0 1 3 6 7 12 18 22 24 25 27 28 29 29 31 34 42 51 53 47 40 33 26 18 11 10 12 13 13 12 11
0 0 0 0 0 0 0 0 0 0 0 0 0 0 1 2 2 4 9 15 21 24 26 28 31 34 37 38 42 50 58 57 51 46 39 30 21 15 13 13 13 11 8 6
0 0 0 0 0 0 0 0 0 0 0 0 0 0 1 1 1 3 7 14 19 24 28 30 33 37 41 44 50 58 62 60 55 49 43 36 27 19 15 14 13 10 6 3
0 0 0 0 0 0 0 0 0 0 0 0 0 0 0 0 1 4 9 17 23 27 28 28 30 35 40 45 50 57 61 60 54 48 42 37 32 24 18 15 13 11 9 6
0 0 0 0 0 0 0 0 0 0 0 0 0 0 1 2 3 6 12 19 26 28 26 25 27 32 38 43 47 52 57 56 50 44 38 34 31 27 21 17 14 13 14 13
0 0 0 0 0 0 0 0 0 0 0 0 0 1 3 4 4 7 12 19 24 26 25 24 28 34 39 43 49 52 54 52 49 46 40 35 31 27 24 20 17 16 17 16
0 0 0 0 0 0 0 0 0 0 0 0 0 1 3 4 5 7 13 20 25 27 27 29 33 39 44 48 53 55 54 51 51 51 48 41 36 33 29 24 19 18 18 17
0 0 0 0 0 0 0 0 0 0 0 0 0 1 2 4 5 9 15 23 28 30 31 35 41 45 49 54 58 58 54 50 49 52 51 46 43 42 37 29 23 21 20 18
0 0 0 0 0 0 0 0 0 0 0 0 0 1 3 5 7 12 18 25 29 31 33 38 44 47 52 57 60 59 55 52 51 53 53 49 47 45 41 35 29 26 23 21
0 0 0 0 0 0 0 0 0 0 0 0 0 1 4 6 8 15 23 28 30 30 31 37 43 47 52 56 58 59 57 56 56 58 57 52 48 45 42 38 34 31 27 24
0 0 0 0 0 0 0 0 0 0 0 0 0 1 3 4 8 16 23 26 28 28 29 34 41 48 53 55 57 58 60 60 60 60 60 56 52 47 43 38 34 32 29 27
0 0 0 0 0 0 0 0 0 0 0 0 1 1 2 3 7 14 18 21 23 25 28 32 39 49 56 56 55 57 60 61 61 61 61 58 53 47 42 36 32 29 27 26
0 0 0 0 0 0 0 0 0 0 0 2 3 4 3 4 7 11 15 17 20 24 28 33 38 46 54 56 54 55 58 60 61 63 63 58 51 45 40 36 32 29 27 26
0 0 0 0 0 0 0 0 0 0 1 4 6 6 6 6 7 10 15 19 23 26 29 34 37 42 49 54 54 54 55 57 60 63 62 58 51 45 41 37 33 30 29 29
0 0 0 0 0 0 0 0 0 0 2 5 7 8 10 11 12 15 19 24 28 31 31 32 36 41 48 53 54 53 53 54 56 59 58 55 51 47 44 40 36 32 30 29
0 0 0 0 0 0 1 3 3 4 6 9 11 12 14 17 20 23 25 28 32 33 32 32 36 42 48 52 52 52 52 51 51 52 51 50 48 46 44 43 39 32 27 26
0 0 0 0 0 2 4 7 9 10 12 14 16 17 18 19 22 24 27 30 32 32 33 34 38 43 46 48 49 50 51 49 48 47 45 43 43 42 42 43 39 31 24 22
1 1 1 1 2 4 7 10 12 13 15 15 18 20 18 17 19 22 26 29 31 31 31 34 37 39 40 42 43 45 48 48 47 45 42 39 38 39 39 39 35 29 23 20
0 1 1 2 3 4 8 11 12 13 13 14 17 19 18 17 18 20 23 26 28 28 28 30 31 32 33 35 38 40 42 46 46 44 41 36 33 32 33 33 30 25 22 20
1 1 2 2 3 4 7 10 11 12 13 13 14 17 17 16 16 16 19 21 21 22 22 24 25 25 26 30 34 37 40 42 42 40 37 31 26 24 24 24 22 18 16 15
2 2 1 2 3 4 7 8 10 12 13 13 14 16 16 14 14 15 16 17 17 17 18 20 21 21 23 26 30 36 39 40 40 38 34 27 21 18 18 19 17 12 10 9

GEFSCGP_con_prob3kmehi_204.txt.gz
EHI
0 0 0 0 0 0 0 0 0 0 0 0 0 2 3 3 8 16 23 29 35 41 46 50 52 56 70 82 81 77 71 63 53 43 34 26 22 21 21 22 27 27 21 18
0 0 0 0 0 0 0 0 0 0 0 0 1 3 5 5 8 16 24 30 36 44 53 61 62 64 74 84 84 78 74 67 57 47 37 29 25 23 21 22 27 27 23 21
0 0 0 0 0 0 0 0 0 0 0 0 1 3 7 10 11 16 23 29 35 46 59 69 71 72 78 85 85 81 79 74 63 51 41 34 31 27 24 25 28 27 25 24
0 0 0 0 0 0 0 0 0 0 0 0 0 2 7 12 14 15 18 24 33 44 57 69 74 74 78 83 85 84 85 80 69 55 45 39 34 29 28 29 31 30 27 24
0 0 0 0 0 0 0 0 0 0 0 0 0 0 4 9 12 12 14 20 30 40 53 68 74 74 75 79 83 86 87 83 72 59 51 43 34 28 27 32 35 34 31 28
0 0 0 0 0 0 0 0 0 0 0 0 0 0 1 4 6 8 12 21 30 38 50 65 73 73 73 77 81 84 85 82 74 65 55 45 34 26 26 32 37 35 33 32
0 0 0 0 0 0 0 0 0 0 0 0 0 0 1 2 3 6 13 24 32 39 48 60 70 74 75 77 80 82 82 81 78 71 62 51 38 27 26 31 34 33 30 30
0 0 0 0 0 0 0 0 0 0 0 0 0 1 3 4 4 7 13 23 32 39 47 57 67 75 77 77 79 82 84 83 81 77 70 60 46 33 28 28 29 28 25 25
0 0 0 0 0 0 0 0 0 0 0 0 0 2 5 6 6 8 13 20 27 36 44 53 62 70 74 75 78 81 83 82 79 76 71 63 52 41 33 30 27 25 24 24
0 0 0 0 0 0 0 0 0 0 0 0 0 2 4 6 7 9 13 18 24 30 37 46 55 61 66 70 73 75 76 75 72 70 66 61 53 46 39 34 31 30 28 28
0 0 0 0 0 0 0 0 0 0 0 0 1 2 4 5 6 9 14 20 26 30 34 41 50 55 58 62 67 70 70 69 67 64 61 59 55 50 44 38 36 37 35 32
0 0 0 0 0 0 0 0 0 0 0 0 1 3 5 6 8 13 19 26 30 34 38 44 51 54 53 58 66 69 69 68 67 64 61 60 58 54 50 45 42 44 42 38
0 0 0 0 0 0 0 0 0 0 0 0 1 4 7 9 14 20 28 33 34 37 43 50 56 56 55 61 68 70 68 67 68 66 65 64 61 58 56 53 51 49 46 43
0 0 0 0 0 0 0 0 0 0 0 0 3 7 11 15 21 28 36 39 39 40 44 51 57 59 60 65 69 70 67 67 68 68 68 67 64 62 61 60 58 54 48 45
0 0 0 0 0 0 0 0 0 0 0 0 3 9 16 23 27 33 40 44 46 47 48 53 59 62 62 63 66 68 68 68 68 69 69 67 66 64 63 62 61 58 52 47
0 0 0 0 0 0 0 0 0 0 0 0 3 10 18 26 31 35 40 46 50 51 52 56 62 64 63 61 62 65 68 69 70 69 68 67 66 65 63 62 61 60 55 50
0 0 0 0 0 0 0 0 0 0 0 1 4 12 20 26 32 36 40 45 47 46 48 54 60 64 62 59 58 62 67 70 71 69 66 66 66 65 63 61 60 59 55 53
0 0 0 0 0 0 0 0 0 0 1 3 7 13 21 27 31 34 37 41 42 41 43 48 53 55 55 54 55 59 63 66 67 66 65 65 65 63 60 58 57 56 55 54
0 0 0 0 0 0 1 1 1 1 2 6 11 17 23 27 29 31 33 36 38 40 44 47 47 46 46 49 52 56 58 61 62 62 63 64 63 59 55 54 54 54 55 55
0 0 0 0 0 1 3 3 2 3 7 14 19 23 27 29 29 30 33 36 40 44 47 48 45 41 42 46 49 50 53 56 57 58 59 61 60 56 52 52 52 53 54 54
1 0 0 0 1 3 7 8 9 13 19 25 27 28 31 33 34 35 37 41 44 46 48 48 46 42 40 43 45 47 49 52 52 53 55 56 54 51 50 50 51 52 51 48
2 2 2 2 4 9 14 16 19 25 28 29 29 30 33 36 38 39 41 43 44 44 45 46 46 42 39 41 43 45 48 50 49 49 52 51 48 47 47 49 49 47 44 42
2 3 3 5 8 14 18 18 20 23 25 26 26 28 32 35 37 39 41 43 43 42 42 42 42 40 38 40 43 46 48 47 47 47 46 45 44 45 45 45 42 39 37 36
1 1 2 5 9 12 12 12 11 13 17 20 22 24 28 32 34 36 38 41 42 40 39 38 37 36 37 40 44 47 47 44 44 44 42 41 41 42 40 38 35 31 30 30
1 1 1 4 6 6 5 6 7 9 14 17 19 21 24 27 29 30 32 36 37 36 34 33 33 34 35 38 43 44 43 42 43 42 39 38 37 37 35 32 28 24 21 21
2 2 3 5 6 4 4 5 6 9 14 17 18 20 22 23 23 24 27 31 33 32 30 30 32 33 33 36 40 40 39 41 42 39 37 36 34 34 32 28 23 18 14 12

GEFSCGP_con_prob3kmehi_210.txt.gz
EHI
0 0 0 0 0 0 0 0 0 0 0 0 1 2 4 7 11 15 17 17 16 13 14 23 32 36 35 31 26 23 22 23 21 16 10 6 4 5 6 6 6 5 5 5
0 0 0 0 0 0 0 0 0 0 1 1 2 3 5 9 13 17 19 20 18 15 17 27 38 45 48 43 35 29 26 26 25 21 14 8 4 4 5 7 7 7 8 9
0 0 0 0 0 0 0 0 0 0 1 2 3 4 6 10 14 18 21 24 23 21 22 32 44 54 60 58 47 36 29 29 28 25 19 12 7 5 5 7 9 10 12 13
0 0 0 0 0 0 0 0 0 0 1 1 1 2 4 8 12 15 20 25 26 25 25 33 45 56 63 65 56 42 34 31 29 26 21 17 13 9 7 8 9 10 10 11
0 0 0 0 0 0 0 0 0 0 0 0 0 0 1 4 6 9 15 24 28 28 28 32 42 54 62 64 58 48 40 34 31 27 23 20 17 13 9 7 7 7 7 8
0 0 0 0 0 0 0 0 0 0 0 0 0 0 0 1 3 6 12 22 29 31 32 34 41 52 62 64 62 57 50 43 36 31 26 23 19 15 11 8 6 5 7 8
0 0 0 0 0 0 0 0 0 0 0 0 0 0 0 1 3 6 11 19 27 31 35 38 44 55 63 66 68 66 59 51 43 36 29 23 18 16 12 8 6 7 8 9
0 0 0 0 0 0 0 0 0 0 0 0 0 0 1 1 4 7 12 17 23 31 38 43 48 56 62 65 69 69 63 53 46 39 30 21 16 14 11 8 7 8 8 9
0 0 0 0 0 0 0 0 0 0 0 0 0 1 2 4 6 11 16 19 22 30 39 43 46 52 57 58 60 63 60 53 48 41 31 20 14 11 9 8 7 7 7 7
0 0 0 0 0 0 0 0 0 0 0 0 0 1 3 6 10 15 19 22 24 28 35 40 43 47 50 50 52 56 56 54 49 43 34 23 14 9 7 6 6 6 5 6
0 0 0 0 0 0 0 0 0 0 0 0 0 0 2 5 10 15 19 24 26 27 30 36 41 43 44 46 47 49 53 52 48 43 38 29 20 12 8 6 6 7 7 6
0 0 0 0 0 0 0 0 0 0 0 0 0 1 3 7 11 15 21 26 28 27 27 32 38 40 42 43 42 43 47 49 47 42 39 34 27 20 14 10 9 9 9 9
0 0 0 0 0 0 0 0 0 0 0 0 0 3 8 14 18 21 26 30 29 26 26 30 35 38 38 38 38 40 43 45 43 39 36 34 31 26 22 16 12 11 11 11
0 0 0 0 0 0 0 0 0 0 0 0 1 7 16 23 26 28 32 34 32 28 27 31 35 36 34 33 34 36 39 41 41 36 32 32 32 29 24 20 15 12 11 12
0 0 0 0 0 0 0 0 0 0 0 0 3 10 19 26 30 32 35 35 32 30 30 32 35 35 33 32 33 34 35 38 39 35 30 29 30 28 26 24 21 15 12 11
0 0 0 0 0 0 0 0 0 0 0 2 6 13 20 27 31 32 34 33 30 29 30 32 34 34 33 33 34 33 32 33 37 36 31 28 29 30 31 31 28 21 15 13
0 0 0 0 0 0 0 1 1 2 2 5 10 16 24 29 31 31 32 30 27 26 27 29 30 31 30 29 32 32 29 29 34 37 33 31 31 34 37 37 33 27 21 18
0 0 0 0 0 0 1 2 4 5 6 10 13 19 26 31 32 31 29 28 25 23 23 23 24 25 24 24 27 31 31 30 34 37 35 34 34 36 38 38 35 31 26 24
0 0 0 0 0 0 1 3 5 7 11 14 16 20 27 32 32 29 26 26 24 22 21 19 19 20 21 22 26 31 33 34 36 38 37 36 35 35 36 37 35 32 29 27
0 0 0 0 0 1 3 5 5 8 13 17 19 22 27 30 29 25 25 26 26 25 24 22 21 22 23 25 28 31 33 36 37 37 36 35 34 32 32 33 33 32 29 28
0 0 0 0 0 1 3 6 6 9 13 17 20 23 26 26 24 24 26 27 28 28 29 28 28 28 27 27 30 31 32 34 34 32 30 31 30 28 28 30 31 29 28 28
0 0 0 0 0 1 3 4 6 8 11 13 17 21 23 23 23 25 27 27 27 28 30 30 30 29 28 28 29 30 29 29 28 26 24 24 26 27 28 28 28 28 27 26
1 0 0 1 1 2 3 3 5 7 8 9 12 17 20 22 23 23 24 23 24 25 27 27 27 25 25 26 27 27 25 23 22 21 20 20 23 26 28 26 25 25 25 24
2 1 1 2 3 5 6 5 6 7 8 8 10 13 16 19 20 19 19 18 19 20 21 22 21 20 21 23 24 24 23 20 19 20 20 20 22 25 26 23 21 21 22 22
2 1 2 3 3 5 6 7 8 9 8 8 9 10 13 15 16 16 16 15 15 15 16 17 17 16 17 19 20 20 20 19 20 20 20 20 22 23 22 19 16 16 16 16
3 2 2 2 2 2 5 8 9 9 8 7 7 9 12 13 15 15 14 13 12 12 13 14 15 14 15 16 16 16 17 19 20 20 20 21 23 22 19 15 12 12 11 10

GEFSCGP_con_prob3kmehi_216.txt.gz
EHI
0 0 0 0 0 0 0 0 0 0 1 2 3 4 3 4 6 6 4 3 3 1 1 2 4 5 5 5 8 11 11 10 10 10 9 7 4 1 0 0 0 0 0 0
0 0 0 0 0 0 0 0 0 0 0 1 3 4 5 5 5 4 3 1 1 0 0 2 4 5 5 6 9 11 11 11 11 11 10 7 5 2 1 0 0 0 0 0
0 0 0 0 0 0 0 0 0 0 0 0 1 3 4 5 4 2 1 0 1 1 1 2 4 5 6 7 9 10 11 11 12 13 11 10 8 5 3 1 1 0 0 1
0 0 0 0 0 0 0 0 0 0 0 0 0 1 2 3 3 2 1 1 3 3 2 3 5 6 7 7 8 9 10 10 12 13 15 14 11 7 4 2 1 0 0 1
0 0 0 0 0 0 0 0 0 0 0 0 0 0 0 1 2 2 2 2 5 6 5 4 5 8 8 6 6 8 9 9 10 13 16 16 11 6 3 2 1 0 0 1
0 0 0 0 0 0 0 0 0 0 0 0 0 0 0 0 1 2 3 5 7 7 6 6 7 11 12 10 8 10 11 11 12 13 14 13 9 5 3 2 1 1 1 1
0 0 0 0 0 0 0 0 0 0 0 0 0 0 0 0 0 2 4 6 9 11 10 11 13 17 19 17 15 15 16 15 15 15 14 10 7 5 4 3 3 3 3 2
0 0 0 0 0 0 0 0 0 0 0 0 0 0 0 1 1 2 4 8 13 15 14 14 17 22 24 23 21 22 23 20 18 17 15 10 7 5 4 4 5 5 3 2
0 0 0 0 0 0 0 0 0 0 0 0 0 0 1 2 2 4 7 11 14 15 14 14 17 22 24 24 25 28 28 24 21 19 16 12 8 6 5 4 4 3 2 1
0 0 0 0 0 0 0 0 0 0 0 0 0 0 1 2 3 5 8 12 14 14 13 12 15 19 20 22 26 32 31 26 22 20 17 13 10 8 6 3 2 2 2 2
0 0 0 1 0 0 0 0 0 0 0 0 0 0 0 1 3 5 7 9 11 11 10 9 12 16 18 21 25 30 30 27 22 19 17 14 10 7 5 3 2 2 2 2
0 0 0 0 0 0 0 0 0 0 0 0 0 0 0 1 3 6 8 7 7 7 7 7 10 14 16 19 22 25 26 26 23 21 20 17 10 5 4 4 4 3 3 4
0 0 0 0 0 0 0 0 0 0 0 0 0 0 1 2 4 8 10 10 9 9 8 9 10 12 13 15 18 20 21 22 22 23 24 21 14 7 5 5 5 4 3 4
0 0 0 0 0 0 0 0 0 0 0 0 0 0 2 3 5 9 13 15 16 15 14 14 13 12 12 13 17 18 17 18 20 24 25 23 18 13 9 7 6 5 4 3
0 0 0 0 0 1 1 1 1 0 0 0 0 0 2 4 7 11 17 21 21 19 18 17 16 16 14 15 17 18 17 16 18 22 25 23 19 15 12 11 10 9 7 6
0 0 0 0 0 1 2 2 1 0 0 0 0 1 4 7 9 14 20 22 20 18 17 16 17 18 17 17 19 19 18 16 16 20 23 22 18 14 13 13 13 11 11 11
0 0 0 0 0 1 2 1 1 1 1 1 1 2 5 8 10 14 19 19 17 15 15 15 16 17 17 18 20 20 19 18 17 20 22 22 19 15 14 13 12 12 13 14
0 0 0 0 0 0 1 1 2 3 3 2 2 4 6 9 11 13 17 17 15 14 14 15 16 16 17 18 19 20 21 20 20 22 22 21 19 16 13 13 13 14 15 15
0 0 0 0 0 0 1 2 3 4 4 3 4 6 9 11 12 12 14 15 15 15 13 13 14 16 16 17 18 19 18 19 20 22 21 19 17 15 14 14 14 15 16 16
0 0 0 0 0 0 1 2 2 3 3 4 5 7 11 13 11 9 9 12 13 12 12 12 13 14 15 15 16 16 15 15 16 17 17 17 17 17 16 14 14 14 14 14
0 0 0 0 0 1 2 2 2 2 3 3 4 7 12 13 9 6 6 9 10 10 11 13 13 13 12 13 15 15 13 12 11 12 13 16 19 19 18 15 13 12 11 11
0 0 0 0 1 1 3 3 2 2 3 4 5 7 10 11 9 5 5 8 9 10 12 14 14 12 10 10 13 14 13 12 11 11 13 16 17 18 17 17 15 12 10 9
0 0 1 2 3 3 3 3 2 2 3 5 6 7 8 9 7 5 5 8 10 10 11 12 13 11 8 9 11 12 12 12 12 12 13 14 15 15 16 17 16 13 10 8
0 1 2 4 4 3 2 1 1 1 3 4 5 7 6 6 5 4 4 6 7 8 9 10 10 9 8 9 10 10 10 12 14 13 11 12 13 14 14 16 17 14 10 8
0 1 2 3 3 2 1 0 0 0 1 2 3 4 4 4 4 2 3 4 5 5 7 9 9 8 7 8 9 9 9 11 13 12 9 10 11 13 14 15 15 13 10 10
0 0 1 1 1 1 0 0 0 0 0 0 1 2 1 1 2 2 3 4 4 4 6 9 9 8 7 7 7 8 8 11 12 11 9 8 10 12 13 14 14 12 9 9

GEFSCGP_con_prob3kmehi_222.txt.gz
EHI
0 0 0 0 0 0 0 0 0 0 0 1 2 4 5 7 8 10 11 11 11 8 5 6 9 10 8 5 7 12 15 17 18 17 18 18 14 10 8 6 5 3 2 3
0 0 0 0 0 0 0 0 0 0 0 1 2 3 5 7 8 10 11 12 11 8 7 9 11 10 8 7 9 13 16 17 18 17 16 15 14 11 9 7 6 4 3 3
0 0 0 0 0 0 0 0 0 0 0 0 1 2 4 5 7 10 11 10 9 6 7 11 14 11 9 9 11 14 17 20 19 17 15 14 13 12 11 8 6 4 4 3
0 0 0 0 0 0 0 0 0 0 0 0 0 1 2 5 8 12 14 11 8 6 7 11 15 13 10 10 11 15 20 24 24 21 18 17 15 13 13 10 6 4 5 5
0 0 0 0 0 0 0 0 0 0 0 0 0 0 1 3 7 12 15 14 12 10 9 11 15 15 13 11 11 16 24 29 28 24 21 19 17 14 12 10 8 7 7 8
0 0 0 0 0 0 0 0 0 0 0 0 0 0 0 1 3 7 12 15 16 15 13 12 14 15 16 14 15 20 28 32 30 26 23 21 20 17 14 13 13 11 9 9
0 0 0 0 0 0 0 0 0 0 0 0 0 0 0 1 1 4 9 15 19 20 18 15 16 19 21 21 21 25 31 32 31 29 26 25 24 22 19 17 15 12 10 9
0 0 0 0 0 1 0 0 0 0 0 0 0 0 0 1 2 4 9 16 21 25 24 21 21 25 28 28 28 31 34 33 30 28 27 27 25 21 19 17 14 11 9 8
0 0 0 0 0 0 0 0 0 0 0 0 0 0 0 1 3 8 15 21 25 29 29 26 24 26 30 32 33 35 37 35 31 27 24 24 23 20 18 17 15 12 9 8
0 0 0 0 0 0 0 0 0 0 0 0 0 0 0 1 5 13 22 27 31 34 35 32 26 24 28 32 34 35 35 35 33 29 24 22 24 23 20 19 17 15 11 9
0 0 0 0 0 0 0 1 1 1 0 0 0 0 1 3 8 16 24 30 35 37 37 36 32 30 31 33 35 34 34 33 33 30 27 27 27 25 23 22 20 18 15 12
0 0 0 0 0 0 0 1 2 1 1 0 0 1 3 5 10 16 23 31 35 36 38 40 39 37 36 37 37 36 34 33 32 31 32 33 32 29 26 24 22 22 19 16
0 0 0 0 0 0 0 1 1 1 1 0 0 1 5 8 12 18 26 34 36 37 39 40 40 38 38 39 38 37 33 31 31 33 35 36 35 32 29 25 24 24 22 19
0 0 0 0 0 0 0 0 0 1 1 0 0 2 7 12 16 22 31 37 38 38 41 39 37 37 40 41 40 37 33 30 30 33 35 35 34 31 28 25 25 25 22 19
0 0 0 0 0 0 1 1 0 0 0 0 0 3 9 16 21 26 33 38 37 38 41 39 37 39 41 41 40 38 34 32 32 33 34 33 31 29 26 26 26 26 23 19
0 0 0 0 0 0 1 2 1 1 0 0 1 6 13 20 24 28 33 36 37 39 40 39 37 39 41 40 38 37 36 37 39 38 35 32 31 29 27 26 26 25 23 20
0 0 0 0 0 0 1 2 3 2 1 0 1 7 16 21 23 27 32 36 38 40 39 35 33 35 39 38 37 36 38 41 43 41 38 35 33 31 29 28 27 25 23 21
0 0 0 0 0 0 1 2 3 3 3 2 2 6 13 17 19 23 29 34 37 39 37 31 28 31 36 36 35 37 40 43 44 41 38 38 37 34 31 30 28 26 23 21
0 0 0 0 0 0 1 2 3 2 3 5 5 7 11 15 16 20 25 29 33 35 34 30 27 31 34 33 32 35 37 40 41 39 36 37 39 37 33 30 29 27 26 24
0 0 0 0 0 1 2 3 2 1 4 7 9 11 13 15 16 20 24 26 28 31 30 28 28 31 33 31 31 33 34 33 33 33 33 35 37 36 31 28 28 29 30 30
0 0 0 0 0 2 4 4 4 4 7 11 14 16 16 17 18 21 23 24 25 27 27 25 26 29 31 31 31 33 32 28 27 27 29 31 31 29 27 26 27 29 31 32
0 0 1 2 3 6 8 9 9 10 12 15 18 19 20 20 19 19 20 20 21 23 22 22 24 27 29 31 32 33 32 29 25 23 24 24 21 19 21 23 25 25 26 26
2 3 4 6 9 11 12 13 14 14 15 17 18 18 18 17 15 16 17 17 17 18 17 19 23 27 29 29 30 30 29 27 24 22 20 17 13 12 15 19 21 22 22 22
4 6 8 10 12 14 14 14 14 15 15 16 17 16 15 13 13 14 14 14 15 15 15 17 21 24 27 26 24 23 23 22 22 22 19 15 10 9 13 16 18 20 21 21
6 8 10 12 13 14 13 12 14 15 15 14 14 14 12 11 10 9 9 10 11 12 12 13 16 17 19 19 19 19 20 20 20 20 17 13 10 9 11 14 16 17 18 18
7 9 11 12 13 13 13 13 15 15 13 11 11 11 9 8 8 6 4 5 7 9 9 9 12 13 13 14 16 18 19 19 19 16 13 12 10 8 9 13 15 15 14 13

GEFSCGP_con_prob3kmehi_228.txt.gz
EHI
0 0 0 0 0 0 0 0 0 0 0 0 0 2 6 8 11 18 25 27 25 24 26 26 25 29 39 46 46 40 35 30 24 21 19 16 12 12 16 20 26 30 26 23
0 0 0 0 0 0 0 0 0 0 0 0 0 2 5 8 11 19 26 27 25 28 36 39 36 38 47 52 50 45 41 35 27 22 21 18 14 13 17 23 28 30 27 24
0 0 0 0 0 0 0 0 0 0 0 0 0 2 5 9 12 18 25 27 27 34 48 55 51 49 54 56 54 50 50 44 32 26 23 21 18 16 20 26 29 29 27 26
0 0 0 0 0 0 0 0 0 0 0 0 0 2 7 11 14 18 23 27 30 37 51 60 61 58 57 55 54 58 60 55 42 31 25 23 22 20 22 28 29 29 28 28
0 0 0 0 0 0 0 0 0 0 0 0 0 2 6 11 14 18 21 25 30 38 50 61 66 66 60 54 57 66 70 64 52 39 30 26 23 21 24 30 31 29 28 27
0 0 0 0 0 0 0 0 0 0 0 0 0 1 3 7 11 17 22 25 30 40 53 63 69 72 66 58 60 70 75 69 59 47 37 32 28 25 28 32 32 28 27 26
0 0 0 0 0 0 0 0 0 0 0 0 0 1 3 6 8 12 20 28 35 43 54 64 72 76 74 68 68 74 78 73 63 53 46 42 37 32 32 33 30 25 24 25
0 0 0 0 0 0 0 0 1 1 0 0 1 2 4 5 5 8 17 29 39 44 51 60 68 74 76 76 77 79 79 75 66 57 52 48 43 36 33 32 28 23 21 21
0 0 0 0 0 0 0 1 2 2 1 0 1 4 5 5 6 8 16 28 39 43 47 55 63 67 70 75 79 80 78 73 65 57 53 50 46 39 33 30 26 21 20 20
0 0 0 0 0 0 0 1 2 2 1 0 1 3 6 8 10 12 19 28 37 42 45 53 61 61 62 68 74 76 75 72 65 57 54 51 47 42 36 31 25 24 25 25
0 0 0 0 0 0 0 2 2 1 0 0 0 2 6 11 13 16 23 32 38 41 45 54 62 61 59 65 71 71 72 72 67 60 56 53 49 45 42 36 32 32 34 35
0 0 0 0 0 0 0 2 2 1 0 0 0 2 8 14 17 21 28 37 44 48 51 59 66 65 63 67 72 72 70 69 66 62 59 56 52 50 48 45 43 43 44 43
0 0 0 0 0 0 0 1 2 1 0 0 0 3 12 19 23 27 34 43 50 55 59 65 72 72 68 70 72 69 65 63 63 62 60 56 55 54 52 51 50 51 49 47
0 0 0 0 0 0 0 1 1 0 0 0 1 6 16 23 27 33 40 47 52 56 60 66 72 73 70 69 68 63 58 57 59 61 60 56 55 54 52 51 50 50 49 47
0 0 0 0 0 0 0 0 0 0 0 0 2 10 19 25 32 39 44 48 50 53 56 59 64 67 66 65 64 61 59 59 60 60 59 57 56 53 50 47 45 45 44 42
0 0 0 0 0 0 0 0 0 0 1 2 5 13 23 30 36 40 43 45 48 51 53 54 55 57 59 60 60 60 61 62 62 59 56 56 55 52 49 45 42 39 37 37
0 0 0 0 0 0 0 0 0 0 1 5 9 17 25 31 35 37 38 41 45 49 52 52 51 51 52 53 53 54 57 59 59 56 53 53 52 49 47 44 40 36 35 34
1 1 1 0 0 0 0 0 0 0 2 6 12 18 24 29 32 34 36 39 42 47 49 49 47 46 45 45 44 46 50 54 53 50 49 49 48 46 46 44 40 37 35 35
1 2 1 0 0 0 0 0 0 2 5 9 12 17 23 27 30 34 39 40 41 43 45 45 42 40 39 38 39 42 47 49 47 46 46 47 45 45 46 45 41 38 36 35
1 1 1 0 0 0 1 0 0 4 9 13 16 21 27 31 33 37 40 39 38 39 41 40 38 36 35 35 37 41 44 46 44 43 43 44 43 42 42 42 40 38 36 35
0 0 0 0 1 3 4 4 5 10 17 21 24 28 33 37 37 36 36 35 33 34 35 37 37 35 34 33 34 36 39 39 38 38 38 38 36 34 34 36 37 36 35 34
1 2 2 2 4 8 10 11 15 23 28 29 29 30 33 36 36 33 33 32 30 29 32 35 36 35 32 31 31 32 33 32 30 31 32 30 28 26 28 31 32 32 30 29
3 5 5 5 8 11 15 18 23 30 33 31 29 28 28 30 31 32 32 31 29 29 31 32 31 30 28 27 27 28 28 27 25 25 24 24 22 21 24 27 27 26 25 23
6 7 7 8 10 13 16 20 23 25 26 27 27 26 25 28 29 29 29 28 27 27 26 25 23 23 23 24 25 24 24 24 23 21 19 19 19 20 22 22 20 21 21 20
11 11 11 11 13 15 16 18 19 19 20 22 24 24 24 25 26 24 22 22 22 21 20 17 16 17 20 23 24 23 22 22 22 20 17 16 17 18 19 17 14 14 15 15
16 15 14 14 15 16 16 16 17 17 18 21 22 22 22 24 22 19 17 17 17 17 16 15 12 13 17 22 24 24 23 23 21 19 16 15 17 18 17 15 12 9 9 10

GEFSCGP_con_prob3kmehi_234.txt.gz
EHI
0 0 0 0 0 0 0 0 0 0 0 0 1 1 3 6 10 13 14 15 16 15 14 15 14 17 21 22 20 17 15 14 13 13 12 10 6 5 6 5 5 6 5 4
0 0 0 0 0 0 0 0 0 0 0 0 1 1 2 6 9 11 13 14 14 14 15 18 20 25 28 27 23 20 18 17 16 14 12 9 6 5 6 6 5 6 6 5
0 0 0 0 0 0 0 0 0 0 0 0 0 0 1 5 7 10 12 13 13 14 16 21 30 37 38 34 27 24 23 23 21 18 15 11 8 6 7 6 5 5 6 7
0 0 0 0 0 0 0 0 0 0 0 0 0 0 1 4 7 10 14 15 15 15 18 25 36 44 44 37 29 27 27 27 25 24 22 18 12 8 7 6 4 4 7 10
0 0 0 0 0 0 0 0 0 0 0 0 0 0 1 4 7 10 15 18 18 18 22 28 37 45 45 37 29 28 29 28 28 29 29 26 18 11 9 7 4 4 7 10
0 0 0 0 0 0 0 1 0 0 0 0 0 1 2 4 7 12 16 18 20 21 26 32 38 43 44 38 32 30 31 30 31 31 31 29 22 15 11 9 6 5 6 7
0 0 0 0 0 0 0 0 0 0 0 0 0 1 2 3 7 13 17 18 21 24 30 37 41 43 45 45 41 37 34 32 32 31 30 28 23 17 14 12 9 7 7 6
0 0 0 0 0 0 0 0 0 0 0 0 0 0 1 3 7 14 19 21 23 28 34 40 43 44 48 52 51 45 40 36 33 31 29 27 22 17 15 14 13 11 9 7
0 0 0 0 0 0 0 0 0 0 0 0 0 1 2 5 10 17 22 25 28 33 37 40 43 46 49 54 56 52 47 42 37 32 28 25 21 18 17 16 15 13 10 8
0 0 0 0 0 0 0 0 0 0 0 0 0 2 3 6 12 19 23 26 29 34 37 41 45 49 50 54 57 56 52 47 40 33 29 24 21 20 19 19 17 14 11 10
0 0 0 0 0 0 0 0 0 0 0 0 0 2 3 7 11 16 21 24 25 28 33 39 45 49 52 55 57 56 53 48 41 36 32 27 24 22 21 21 20 16 13 12
0 0 0 0 0 0 0 0 0 0 0 0 1 2 5 9 12 15 20 23 22 25 30 35 41 47 50 52 54 53 50 46 42 39 37 33 29 25 23 21 21 18 15 13
0 0 0 0 0 0 0 0 0 0 0 0 1 4 9 13 14 17 22 25 25 28 33 35 38 42 43 44 46 47 47 44 42 41 40 39 34 29 25 22 19 17 15 13
0 0 0 0 0 0 0 0 0 0 0 0 1 6 13 16 17 18 22 26 30 34 37 38 37 36 35 35 36 39 41 41 41 41 41 40 36 31 27 21 17 15 14 12
0 0 0 0 0 0 0 0 0 0 0 1 3 7 12 17 18 18 21 26 32 35 36 35 33 32 31 30 31 32 35 38 39 39 39 37 35 31 27 23 19 17 15 14
0 0 0 0 0 0 0 0 0 0 2 5 6 8 13 19 20 18 20 25 29 31 31 29 28 29 29 29 29 30 32 35 37 37 35 33 32 31 28 25 23 20 17 16
0 0 0 0 0 0 0 0 0 2 4 7 9 12 17 23 23 19 19 22 24 27 29 27 25 26 27 26 27 29 30 32 34 34 32 31 32 32 29 26 25 22 18 17
0 0 0 0 0 0 0 0 1 4 6 8 12 16 21 25 25 22 21 21 22 25 28 27 25 24 24 23 24 26 26 28 30 30 30 31 32 32 28 25 25 23 20 17
0 0 0 0 0 0 1 3 5 7 10 14 18 21 25 27 27 24 22 23 24 25 26 24 22 21 22 21 22 23 23 24 25 26 27 30 31 30 28 25 24 23 21 18
0 0 0 0 0 1 3 6 7 8 12 17 22 26 29 29 27 23 23 25 26 24 21 19 16 16 18 19 20 20 20 19 20 21 24 27 28 28 27 24 22 22 21 19
0 0 0 0 1 2 5 8 8 7 9 15 21 26 29 29 26 25 26 26 23 19 16 13 12 13 15 16 17 18 18 17 17 18 20 22 22 22 21 19 19 21 21 19
0 0 0 0 1 2 4 7 8 7 8 11 16 22 27 28 27 27 27 24 19 16 13 11 10 11 12 13 14 15 15 15 16 16 17 17 16 15 14 14 15 17 17 16
1 0 0 2 3 3 4 6 7 8 10 12 15 19 25 27 27 26 23 19 15 13 11 9 8 9 9 11 12 12 11 12 14 15 16 15 13 11 10 10 11 11 11 12
2 2 2 5 6 6 7 7 7 10 12 14 15 18 22 24 24 21 16 11 10 9 8 7 6 6 7 8 9 9 9 10 11 13 14 15 14 11 9 8 9 9 9 8
5 4 5 6 6 7 8 8 10 12 13 14 15 16 18 19 19 15 9 6 6 6 6 5 5 5 4 4 5 6 7 8 9 11 13 13 12 10 8 7 7 8 8 7
7 5 5 6 6 6 7 9 10 12 13 12 13 14 14 14 14 11 7 6 5 5 4 5 5 4 2 2 3 4 6 7 8 10 11 11 11 9 7 6 7 8 8 8

GEFSCGP_con_prob3kmehi_240.txt.gz
EHI
0 0 0 0 0 0 0 0 0 0 0 0 0 0 0 1 2 3 3 3 4 4 3 3 3 4 6 7 6 4 3 4 5 3 1 0 0 0 0 0 0 0 0 0
0 0 0 0 0 0 0 0 0 0 0 0 0 0 0 0 1 2 3 3 3 3 3 3 4 5 8 9 8 7 6 7 8 7 4 2 1 0 0 0 0 0 0 0
0 0 0 0 0 0 0 0 0 0 0 0 0 0 0 0 1 2 2 3 4 4 4 5 6 7 9 10 10 9 9 10 11 10 8 7 4 2 1 1 0 0 0 0
0 0 0 0 0 0 0 0 0 0 0 0 0 0 0 0 0 1 3 4 5 6 7 9 8 8 9 11 11 10 10 11 11 11 11 10 8 6 4 3 1 0 0 0
0 0 0 0 0 0 0 0 0 0 0 0 0 0 0 0 0 1 3 5 7 9 11 13 12 9 10 11 12 11 10 10 10 11 12 12 11 8 6 4 2 1 1 1
0 0 0 0 0 0 0 0 0 0 0 0 0 0 0 0 0 0 2 6 9 12 14 16 15 12 10 11 14 13 11 10 10 11 14 15 13 11 9 6 3 3 2 2
0 0 0 0 0 0 0 0 0 0 0 0 0 0 0 1 2 2 2 6 10 13 15 15 14 12 10 11 15 16 13 11 10 12 16 17 16 14 12 8 4 3 3 3
0 0 0 0 0 0 0 0 0 0 0 0 0 0 1 3 4 4 3 5 9 13 16 14 12 10 9 11 16 18 16 13 12 13 17 18 16 14 12 8 5 3 3 3
0 0 0 0 0 0 0 0 0 0 0 0 0 0 2 4 6 6 5 6 8 12 15 14 11 9 10 12 16 18 17 16 16 16 17 17 15 13 11 9 6 4 3 3
0 0 0 0 0 0 0 0 0 0 0 0 0 0 1 3 6 8 9 8 7 9 12 13 10 9 11 14 17 19 18 17 17 17 16 15 13 12 12 10 8 5 5 5
0 0 0 0 0 0 0 0 0 0 0 0 0 0 0 2 6 9 10 8 5 5 8 11 11 11 13 16 18 19 18 16 15 14 14 14 13 13 12 12 11 10 9 8
0 0 0 0 0 0 0 0 0 0 0 0 0 0 1 4 6 9 8 4 2 2 6 12 14 14 15 18 20 20 18 14 12 12 12 14 15 15 14 14 14 14 11 9
0 0 0 0 0 0 0 0 0 0 0 0 0 1 3 6 8 8 6 2 1 2 7 13 15 15 18 20 22 22 19 15 12 12 12 14 16 17 16 16 15 13 10 7
0 0 0 0 0 0 0 0 0 0 0 0 0 1 3 6 9 9 6 2 1 2 5 10 12 13 17 20 21 23 21 17 14 13 13 13 16 18 18 17 14 11 8 6
0 0 0 0 0 0 0 0 0 0 0 0 0 0 1 4 8 9 7 4 3 3 5 8 9 11 15 17 18 22 23 19 17 17 16 16 17 18 19 19 14 9 6 6
0 0 0 0 0 0 0 0 0 0 0 0 1 1 2 4 8 10 8 6 6 6 8 10 9 9 12 15 18 21 22 22 22 22 22 21 20 20 20 19 14 8 5 5
0 0 0 0 0 0 0 0 0 0 0 0 1 2 4 5 7 8 7 7 7 8 11 11 10 9 11 15 18 19 20 22 23 23 23 24 23 22 21 18 13 8 6 6
0 0 0 0 0 0 0 0 0 0 0 0 2 3 5 7 7 8 7 6 6 8 11 12 11 12 15 16 17 17 18 19 20 20 22 24 22 20 18 16 12 9 8 9
0 0 0 0 0 0 0 0 0 0 0 1 3 5 6 8 9 9 8 5 4 6 10 13 13 15 18 18 18 16 16 16 15 16 17 18 16 14 13 13 12 11 11 12
0 0 0 0 0 0 0 0 0 0 0 1 3 5 7 8 9 9 8 8 7 7 10 13 14 15 17 18 17 14 13 11 10 10 12 12 12 9 8 10 11 12 12 12
0 0 0 0 0 0 0 0 0 0 0 1 3 4 7 8 8 8 11 13 13 11 10 12 14 14 15 14 13 11 10 8 5 6 8 9 9 7 6 7 9 10 10 9
0 0 0 0 0 0 0 0 0 0 1 2 3 4 7 8 8 9 13 16 17 14 12 12 12 12 11 10 10 9 8 6 4 5 6 6 6 6 6 6 7 8 8 8
1 0 0 0 0 0 0 0 0 0 2 3 3 4 6 7 8 10 14 16 16 13 12 11 11 10 8 7 7 7 6 4 4 4 5 4 4 4 5 5 6 7 8 8
2 1 0 0 0 1 1 1 0 0 2 3 4 5 7 8 10 13 15 15 14 12 11 10 10 9 7 5 5 4 4 4 4 4 4 4 4 5 5 6 6 7 8 8
2 1 1 0 0 1 2 2 1 1 2 3 5 7 8 9 11 13 13 11 11 10 9 9 9 7 5 4 3 3 3 4 4 4 4 4 5 5 6 6 6 7 7 7
3 2 2 1 0 1 3 2 1 1 2 4 5 7 8 9 11 11 9 8 8 8 8 8 7 5 4 3 3 3 3 3 4 4 5 4 3 3 4 5 6 6 6 6

GEFSCGP_con_prob3kmehi_246.txt.gz
EHI
0 0 0 0 0 0 0 0 0 0 0 0 0 0 0 1 5 10 14 15 15 12 11 14 14 10 5 5 8 11 12 13 12 12 12 11 7 3 2 4 6 7 7 6
0 0 0 0 0 0 0 0 0 0 0 0 0 0 0 2 6 12 16 17 16 15 15 17 16 13 9 8 10 13 15 15 13 12 12 12 10 5 3 5 8 8 7 6
0 0 0 0 0 0 0 0 0 0 0 0 0 0 0 2 7 12 17 18 17 17 19 21 20 16 13 13 14 15 17 17 15 14 13 14 12 9 6 7 9 9 7 6
0 0 0 0 0 0 0 0 0 0 0 0 0 0 0 1 5 11 16 18 19 19 21 23 22 18 14 13 14 17 19 18 16 15 15 15 14 11 9 9 10 10 9 8
0 0 0 0 0 0 0 0 0 0 0 0 0 0 0 1 3 8 14 18 20 20 21 23 23 20 15 12 13 18 22 22 20 18 17 16 15 12 10 9 11 13 13 12
0 0 0 0 0 0 1 0 0 0 0 0 0 0 1 1 2 4 10 15 17 19 22 23 23 22 18 14 14 19 26 28 25 21 19 18 16 13 11 11 13 16 17 18
0 0 0 0 0 0 0 0 0 0 0 0 0 0 1 3 3 3 6 9 13 17 22 26 26 25 24 21 19 21 29 34 30 25 22 20 17 15 14 14 15 17 18 19
0 0 0 0 0 0 0 0 0 0 0 0 0 0 1 3 5 4 4 7 11 15 22 28 29 29 30 29 25 25 32 37 35 29 26 22 19 17 17 17 18 18 18 17
0 0 0 0 0 0 0 0 0 0 0 0 0 0 2 3 4 4 5 7 10 14 19 24 27 31 33 32 28 26 31 37 38 34 29 24 20 20 19 17 17 18 18 17
0 0 0 0 0 0 0 0 0 0 0 0 0 0 1 3 3 4 7 10 11 12 15 18 23 29 32 31 28 26 28 33 35 33 28 22 20 18 17 14 15 18 20 21
0 0 0 0 0 0 0 0 0 0 0 0 0 1 2 3 4 6 9 13 15 15 15 17 21 28 32 30 28 27 28 30 29 26 23 21 19 15 13 13 15 19 21 21
0 0 0 0 0 0 0 0 0 0 0 0 0 1 2 4 5 7 10 14 18 21 21 20 23 31 35 33 30 29 28 28 26 23 21 22 21 18 16 17 18 20 21 20
0 0 0 0 0 0 0 0 0 0 0 0 0 0 2 4 6 8 11 15 20 24 26 25 25 30 35 37 35 30 27 27 26 24 22 23 23 22 22 22 21 23 22 21
0 0 0 0 0 0 0 0 0 0 0 0 0 0 1 4 7 9 12 17 21 25 27 27 26 27 33 38 38 34 31 30 29 29 27 26 25 24 24 23 24 25 25 24
0 0 0 0 0 0 0 0 0 0 0 0 0 1 3 5 8 11 13 17 21 24 24 24 26 27 32 37 38 37 37 36 36 36 35 32 28 25 24 24 25 28 27 26
0 0 0 0 0 0 0 0 0 0 0 0 0 2 5 7 10 11 12 15 20 23 22 22 26 29 32 35 37 39 40 39 40 41 40 37 33 28 26 27 27 29 30 29
0 0 0 0 0 0 0 0 0 0 0 0 1 3 6 7 9 10 11 14 19 22 23 24 28 31 32 33 35 38 39 38 39 41 40 38 35 30 29 29 28 28 29 30
1 1 0 0 0 0 0 0 1 1 1 1 2 4 6 7 8 9 11 14 19 21 23 24 27 29 31 30 31 34 35 34 35 38 39 37 34 32 30 29 28 28 28 28
0 0 0 0 0 0 0 1 2 2 2 1 2 4 6 7 8 10 12 15 18 20 22 23 23 26 29 30 30 31 31 30 32 36 38 37 36 34 32 32 32 30 28 28
0 0 0 0 0 0 0 1 2 1 1 1 2 4 5 7 9 14 17 17 17 19 22 23 23 26 30 32 32 32 31 30 32 34 34 34 35 34 34 35 34 31 29 29
0 0 0 0 0 0 0 1 1 1 2 2 3 5 7 10 16 20 21 18 17 19 21 22 24 27 30 32 33 34 33 33 33 32 30 29 30 30 30 31 30 28 28 28
0 0 0 0 0 0 0 1 3 4 5 6 7 8 13 17 20 21 19 18 16 18 21 23 25 27 29 30 31 32 31 31 30 27 24 23 23 22 23 24 24 23 24 23
0 0 0 1 1 0 2 4 5 6 8 10 10 13 17 20 19 17 17 18 18 19 23 25 26 27 28 28 28 28 26 25 24 20 16 15 14 15 17 18 18 19 18 16
1 1 1 2 2 2 3 5 5 6 8 9 10 14 17 16 14 15 17 20 20 21 24 25 26 26 24 24 25 24 21 18 16 13 9 7 7 9 11 12 12 12 11 10
0 1 2 2 3 3 4 4 4 5 7 8 9 12 12 11 10 13 16 18 18 19 22 22 22 21 19 19 19 18 16 14 11 8 5 4 4 6 7 8 7 6 6 6
0 0 1 2 3 5 5 3 4 5 6 8 9 10 9 8 10 13 14 14 14 16 19 20 18 16 15 14 15 14 13 12 10 7 4 3 4 6 6 7 6 3 2 4